FW6434 Weather Reports


time (UTC)temp
C
wind
direction
speed
KPH
gust
KPH
rain 1hr
cm
rain 24hr
cm
rain mn
cm
humidity
%
barometer
mb
20260509121227 13 158 0.0 1.6 0.00 0.00 0.00 72 1019.5
20260509121127 13 173 0.0 0.0 0.00 0.00 0.00 72 1019.6
20260509121049 13 160 0.0 0.0 0.00 0.00 0.00 72 1019.6
20260509121027 13 179 0.0 0.0 0.00 0.00 0.00 72 1019.2
20260509120927 13 179 0.0 0.0 0.00 0.00 0.00 73 1019.2
20260509120828 13 157 0.0 0.0 0.00 0.00 0.00 73 1019.4
20260509120727 13 186 0.0 0.0 0.00 0.00 0.00 73 1019.3
20260509120709 13 181 0.0 0.0 0.00 0.00 0.00 72 1019.3
20260509120655 13 179 0.0 0.0 0.00 0.00 0.00 72 1019.3
20260509120647 13 179 0.0 0.0 0.00 0.00 0.00 72 1019.4
20260509120327 13 179 0.0 0.0 0.00 0.00 0.00 72 1019.3
20260509120227 13 177 0.0 0.0 0.00 0.00 0.00 72 1019.2
20260509120132 13 188 0.0 1.6 0.00 0.00 0.00 72 1019.3
20260509120128 13 174 0.0 0.0 0.00 0.00 0.00 72 1019.3
20260509120112 13 176 0.0 0.0 0.00 0.00 0.00 73 1019.3
20260509120047 13 166 0.0 0.0 0.00 0.00 0.00 73 1019.4
20260509120031 13 157 0.0 0.0 0.00 0.00 0.00 73 1019.4
20260509120015 13 131 0.0 1.6 0.00 0.00 0.00 72 1019.3
20260509120000 13 188 0.0 1.6 0.00 0.00 0.00 73 1019.3
20260509115503 13 174 0.0 1.6 0.00 0.00 0.00 72 1019.2
20260509115447 13 173 0.0 1.6 0.00 0.00 0.00 71 1019.3
20260509115431 13 159 0.0 1.6 0.00 0.00 0.00 71 1019.4
20260509115416 13 169 0.0 1.6 0.00 0.00 0.00 71 1019.1
20260509115359 13 164 0.0 1.6 0.00 0.00 0.00 71 1019.1
20260509114828 13 111 0.0 1.6 0.00 0.00 0.00 70 1019.4
20260509114811 13 171 0.0 0.0 0.00 0.00 0.00 71 1019.2
20260509114755 13 177 0.0 0.0 0.00 0.00 0.00 71 1019.4
20260509114740 13 178 0.0 0.0 0.00 0.00 0.00 70 1019.4
20260509114428 13 179 0.0 0.0 0.00 0.00 0.00 70 1019.3
20260509114406 13 162 0.0 0.0 0.00 0.00 0.00 70 1019.4
20260509114349 13 179 0.0 0.0 0.00 0.00 0.00 71 1019.5
20260509114331 13 180 0.0 0.0 0.00 0.00 0.00 70 1019.4
20260509114315 13 170 0.0 0.0 0.00 0.00 0.00 70 1019.4
20260509114047 13 150 0.0 0.0 0.00 0.00 0.00 69 1019.5
20260509113727 13 164 0.0 0.0 0.00 0.00 0.00 69 1019.4
20260509113626 13 170 0.0 0.0 0.00 0.00 0.00 70 1019.4
20260509113547 13 167 0.0 0.0 0.00 0.00 0.00 70 1019.4
20260509113527 13 150 0.0 0.0 0.00 0.00 0.00 70 1019.4
20260509113427 13 183 0.0 0.0 0.00 0.00 0.00 71 1019.3
20260509113327 13 176 0.0 0.0 0.00 0.00 0.00 71 1019.5
20260509113228 13 182 0.0 0.0 0.00 0.00 0.00 72 1019.3
20260509113126 13 181 0.0 1.6 0.00 0.00 0.00 71 1019.4
20260509113047 13 180 0.0 1.6 0.00 0.00 0.00 71 1019.4
20260509113027 13 166 0.0 1.6 0.00 0.00 0.00 71 1019.4
20260509112942 13 153 0.0 1.6 0.00 0.00 0.00 71 1019.4
20260509112934 13 167 0.0 1.6 0.00 0.00 0.00 72 1019.6
20260509112919 13 178 0.0 1.6 0.00 0.00 0.00 71 1019.4
20260509112902 13 169 0.0 1.6 0.00 0.00 0.00 71 1019.3
20260509112846 13 154 0.0 1.6 0.00 0.00 0.00 71 1019.4
20260509112620 13 165 0.0 1.6 0.00 0.00 0.00 70 1019.4
20260509112605 13 149 0.0 1.6 0.00 0.00 0.00 71 1019.6
20260509112549 13 176 0.0 1.6 0.00 0.00 0.00 70 1019.4
20260509112533 13 174 0.0 1.6 0.00 0.00 0.00 69 1019.2
20260509112257 13 177 0.0 1.6 0.00 0.00 0.00 69 1019.5
20260509112248 13 178 0.0 1.6 0.00 0.00 0.00 69 1019.3
20260509112232 13 170 0.0 1.6 0.00 0.00 0.00 69 1019.5
20260509111728 13 151 0.0 1.6 0.00 0.00 0.00 68 1019.4
20260509111719 13 129 0.0 1.6 0.00 0.00 0.00 68 1019.6
20260509111703 13 137 0.0 1.6 0.00 0.00 0.00 69 1019.3
20260509111647 13 181 0.0 1.6 0.00 0.00 0.00 71 1019.4
20260509111410 13 181 0.0 1.6 0.00 0.00 0.00 69 1019.4
20260509111355 13 183 0.0 1.6 0.00 0.00 0.00 69 1019.4
20260509111333 13 182 0.0 1.6 0.00 0.00 0.00 69 1019.3
20260509111056 13 184 0.0 1.6 0.00 0.00 0.00 69 1019.4
20260509110547 13 165 0.0 1.6 0.00 0.00 0.00 67 1019.3
20260509110515 13 136 0.0 1.6 0.00 0.00 0.00 68 1019.4
20260509110415 13 175 0.0 1.6 0.00 0.00 0.00 69 1019.4
20260509110352 13 179 0.0 1.6 0.00 0.00 0.00 69 1019.4
20260509110336 13 168 0.0 1.6 0.00 0.00 0.00 69 1019.4
20260509110059 13 175 0.0 1.6 0.00 0.00 0.00 69 1019.6
20260509110015 13 182 0.0 1.6 0.00 0.00 0.00 70 1019.5
20260509105915 13 175 0.0 1.6 0.00 0.00 0.00 71 1019.6
20260509105816 13 167 0.0 1.6 0.00 0.00 0.00 71 1019.4
20260509105716 13 182 0.0 1.6 0.00 0.00 0.00 72 1019.4
20260509105615 13 134 0.0 1.6 0.00 0.00 0.00 72 1019.4
20260509105548 13 154 0.0 1.6 0.00 0.00 0.00 74 1019.4
20260509105517 13 176 0.0 1.6 0.00 0.00 0.00 74 1019.7
20260509105415 13 160 0.0 1.6 0.00 0.00 0.00 74 1019.5
20260509105315 13 96 0.0 1.6 0.00 0.00 0.00 73 1019.3
20260509105257 13 160 0.0 1.6 0.00 0.00 0.00 74 1019.4
20260509105240 13 181 0.0 0.0 0.00 0.00 0.00 74 1019.5
20260509105214 13 185 0.0 0.0 0.00 0.00 0.00 74 1019.5
20260509105157 13 185 0.0 0.0 0.00 0.00 0.00 73 1019.7
20260509104615 13 172 0.0 0.0 0.00 0.00 0.00 72 1019.4
20260509104547 13 182 0.0 0.0 0.00 0.00 0.00 72 1019.4
20260509104515 13 178 0.0 0.0 0.00 0.00 0.00 73 1019.5
20260509104415 13 190 0.0 0.0 0.00 0.00 0.00 72 1019.5
20260509104355 13 138 0.0 0.0 0.00 0.00 0.00 72 1019.3
20260509104340 13 159 0.0 0.0 0.00 0.00 0.00 72 1019.6
20260509104324 13 167 0.0 3.2 0.00 0.00 0.00 73 1019.7
20260509104311 13 184 0.0 3.2 0.00 0.00 0.00 73 1019.7
20260509104040 13 179 0.0 3.2 0.00 0.00 0.00 73 1019.7
20260509104025 13 140 0.0 3.2 0.00 0.00 0.00 73 1019.3
20260509104008 13 180 0.0 3.2 0.00 0.00 0.00 73 1019.6
20260509103735 13 181 0.0 3.2 0.00 0.00 0.00 73 1019.6
20260509103435 13 107 0.0 3.2 0.00 0.00 0.00 74 1019.4
20260509103430 13 143 0.0 3.2 0.00 0.00 0.00 72 1019.6
20260509103424 13 182 0.0 3.2 0.00 0.00 0.00 74 1019.7
20260509103408 13 160 0.0 3.2 0.00 0.00 0.00 74 1019.5
20260509103353 13 177 0.0 3.2 0.00 0.00 0.00 73 1019.5
20260509103337 13 165 0.0 3.2 0.00 0.00 0.00 74 1019.4
20260509103108 13 187 0.0 3.2 0.00 0.00 0.00 73 1019.5
20260509103052 13 179 0.0 3.2 0.00 0.00 0.00 74 1019.7
20260509103036 13 177 0.0 3.2 0.00 0.00 0.00 73 1019.6
20260509103021 13 175 0.0 3.2 0.00 0.00 0.00 73 1019.9
20260509102512 13 166 0.0 3.2 0.00 0.00 0.00 73 1019.5
20260509102446 13 170 0.0 3.2 0.00 0.00 0.00 73 1019.4
20260509102430 13 204 0.0 3.2 0.00 0.00 0.00 73 1019.6
20260509102111 13 156 0.0 0.0 0.00 0.00 0.00 73 1019.6
20260509102045 13 182 0.0 0.0 0.00 0.00 0.00 75 1019.6
20260509102011 13 179 0.0 0.0 0.00 0.00 0.00 75 1019.9
20260509101911 12 175 0.0 0.0 0.00 0.00 0.00 74 1019.5
20260509101811 12 174 0.0 0.0 0.00 0.00 0.00 75 1019.5
20260509101712 12 165 0.0 0.0 0.00 0.00 0.00 74 1019.6
20260509101611 12 166 0.0 1.6 0.00 0.00 0.00 74 1019.8
20260509101544 12 154 0.0 1.6 0.00 0.00 0.00 74 1019.8
20260509101512 12 172 0.0 1.6 0.00 0.00 0.00 74 1019.5
20260509101412 12 162 0.0 1.6 0.00 0.00 0.00 75 1019.7
20260509101348 12 173 0.0 1.6 0.00 0.00 0.00 74 1019.7
20260509101331 12 176 0.0 1.6 0.00 0.00 0.00 75 1019.5
20260509101043 12 159 0.0 1.6 0.00 0.00 0.00 74 1019.7
20260509101012 12 173 0.0 1.6 0.00 0.00 0.00 74 1019.6
20260509100911 12 167 0.0 1.6 0.00 0.00 0.00 74 1019.6
20260509100811 12 177 0.0 1.6 0.00 0.00 0.00 73 1019.4
20260509100752 12 119 0.0 1.6 0.00 0.00 0.00 73 1019.7
20260509100737 12 142 0.0 1.6 0.00 0.00 0.00 73 1019.8
20260509100724 12 144 0.0 1.6 0.00 0.00 0.00 73 1019.8
20260509100412 12 174 0.0 3.2 0.00 0.00 0.00 74 1019.9
20260509100346 12 165 0.0 3.2 0.00 0.00 0.00 74 1019.7
20260509100331 12 127 0.0 3.2 0.00 0.00 0.00 74 1019.8
20260509100056 12 178 0.0 3.2 0.00 0.00 0.00 75 1019.7
20260509100012 12 172 0.0 3.2 0.00 0.00 0.00 75 1019.6
20260509095911 12 167 0.0 3.2 0.00 0.00 0.00 75 1019.7
20260509095811 12 157 0.0 3.2 0.00 0.00 0.00 75 1019.6
20260509095710 12 180 0.0 3.2 0.00 0.00 0.00 76 1019.5
20260509095612 12 132 0.0 3.2 0.00 0.00 0.00 75 1019.7
20260509095543 12 174 0.0 3.2 0.00 0.00 0.00 75 1019.7
20260509095511 12 143 0.0 1.6 0.00 0.00 0.00 76 1019.5
20260509095412 12 168 0.0 1.6 0.00 0.00 0.00 76 1019.5
20260509095312 12 163 0.0 1.6 0.00 0.00 0.00 76 1019.5
20260509095211 12 153 0.0 1.6 0.00 0.00 0.00 76 1019.7
20260509095111 12 181 0.0 1.6 0.00 0.00 0.00 75 1019.7
20260509095058 12 179 0.0 3.2 0.00 0.00 0.00 76 1019.7
20260509095047 12 176 0.0 3.2 0.00 0.00 0.00 76 1019.5
20260509095031 12 172 0.0 3.2 0.00 0.00 0.00 75 1019.7
20260509094746 12 120 0.0 3.2 0.00 0.00 0.00 74 1019.6
20260509094731 12 165 0.0 3.2 0.00 0.00 0.00 75 1019.6
20260509094719 12 158 0.0 3.2 0.00 0.00 0.00 75 1019.6
20260509094710 12 172 0.0 3.2 0.00 0.00 0.00 75 1019.5
20260509094653 12 163 0.0 3.2 0.00 0.00 0.00 75 1019.7
20260509094111 12 113 1.6 3.2 0.00 0.00 0.00 74 1019.5
20260509094043 12 172 0.0 1.6 0.00 0.00 0.00 74 1019.5
20260509094011 12 167 0.0 1.6 0.00 0.00 0.00 74 1019.6
20260509093912 12 175 0.0 1.6 0.00 0.00 0.00 74 1019.8
20260509093811 12 168 0.0 1.6 0.00 0.00 0.00 74 1019.4
20260509093711 12 89 0.0 1.6 0.00 0.00 0.00 73 1019.6
20260509093611 12 97 0.0 1.6 0.00 0.00 0.00 73 1019.7
20260509093545 12 168 0.0 1.6 0.00 0.00 0.00 73 1019.7
20260509093511 12 181 0.0 1.6 0.00 0.00 0.00 73 1019.6
20260509093412 12 180 0.0 1.6 0.00 0.00 0.00 74 1019.6
20260509093310 12 191 0.0 1.6 0.00 0.00 0.00 74 1019.6
20260509093213 12 74 0.0 1.6 0.00 0.00 0.00 74 1019.5
20260509093112 12 161 0.0 1.6 0.00 0.00 0.00 74 1019.5
20260509093043 12 180 0.0 1.6 0.00 0.00 0.00 74 1019.5
20260509093012 12 174 0.0 1.6 0.00 0.00 0.00 74 1019.4
20260509092912 12 168 0.0 1.6 0.00 0.00 0.00 74 1019.4
20260509092811 12 133 0.0 1.6 0.00 0.00 0.00 74 1019.6
20260509092711 12 151 0.0 1.6 0.00 0.00 0.00 74 1019.7
20260509092611 12 163 0.0 1.6 0.00 0.00 0.00 73 1019.5
20260509092544 12 127 0.0 1.6 0.00 0.00 0.00 74 1019.5
20260509092512 12 181 0.0 1.6 0.00 0.00 0.00 73 1019.6
20260509092411 12 162 0.0 1.6 0.00 0.00 0.00 74 1019.9
20260509092311 12 172 0.0 1.6 0.00 0.00 0.00 74 1019.7
20260509092211 12 167 0.0 1.6 0.00 0.00 0.00 75 1019.8
20260509092112 12 162 0.0 1.6 0.00 0.00 0.00 74 1019.8
20260509092044 12 172 0.0 1.6 0.00 0.00 0.00 74 1019.8
20260509092011 12 162 0.0 1.6 0.00 0.00 0.00 74 1019.8
20260509091912 12 179 0.0 1.6 0.00 0.00 0.00 74 1019.7
20260509091812 12 175 0.0 4.8 0.00 0.00 0.00 74 1019.8
20260509091754 12 178 0.0 4.8 0.00 0.00 0.00 74 1019.7
20260509091738 12 140 0.0 4.8 0.00 0.00 0.00 74 1019.6
20260509091725 12 150 0.0 4.8 0.00 0.00 0.00 74 1019.6
20260509091411 12 176 0.0 11.3 0.00 0.00 0.00 73 1019.6
20260509091259 12 175 0.0 11.3 0.00 0.00 0.00 73 1019.4
20260509091159 12 176 0.0 11.3 0.00 0.00 0.00 73 1019.7
20260509091059 12 171 0.0 11.3 0.00 0.00 0.00 73 1019.7
20260509091043 12 171 0.0 11.3 0.00 0.00 0.00 74 1019.7
20260509090959 12 159 0.0 11.3 0.00 0.00 0.00 73 1019.4
20260509090859 12 55 1.6 11.3 0.00 0.00 0.00 73 1019.4
20260509090759 12 170 0.0 11.3 0.00 0.00 0.00 74 1019.5
20260509090741 12 174 0.0 11.3 0.00 0.00 0.00 74 1019.8
20260509090725 12 164 0.0 11.3 0.00 0.00 0.00 74 1019.7
20260509090713 12 151 0.0 11.3 0.00 0.00 0.00 74 1019.7
20260509090359 12 82 1.6 4.8 0.00 0.00 0.00 74 1019.7
20260509090300 12 171 0.0 4.8 0.00 0.00 0.00 74 1019.4
20260509090200 12 146 0.0 4.8 0.00 0.00 0.00 74 1019.5
20260509090110 12 180 0.0 4.8 0.00 0.00 0.00 75 1019.5
20260509090058 12 178 0.0 4.8 0.00 0.00 0.00 74 1019.5
20260509085959 12 161 0.0 4.8 0.00 0.00 0.00 74 1019.5
20260509085858 12 119 0.0 4.8 0.00 0.00 0.00 74 1019.6
20260509085830 12 55 1.6 4.8 0.00 0.00 0.00 74 1019.8
20260509085814 12 177 0.0 4.8 0.00 0.00 0.00 74 1019.7
20260509085547 12 40 1.6 4.8 0.00 0.00 0.00 74 1019.6
20260509085436 12 142 0.0 1.6 0.00 0.00 0.00 75 1019.6
20260509085337 12 175 0.0 0.0 0.00 0.00 0.00 76 1019.5
20260509085320 12 171 0.0 0.0 0.00 0.00 0.00 76 1019.4
20260509085306 12 172 0.0 0.0 0.00 0.00 0.00 76 1019.4
20260509085035 12 170 0.0 0.0 0.00 0.00 0.00 76 1019.5
20260509084741 12 161 0.0 1.6 0.00 0.00 0.00 75 1019.4
20260509084428 12 128 0.0 1.6 0.00 0.00 0.00 75 1019.5
20260509084328 12 170 0.0 1.6 0.00 0.00 0.00 77 1019.2
20260509084228 12 179 0.0 0.0 0.00 0.00 0.00 77 1019.5
20260509084130 12 175 0.0 0.0 0.00 0.00 0.00 77 1019.5
20260509084114 12 135 0.0 0.0 0.00 0.00 0.00 77 1019.5
20260509084104 12 152 0.0 0.0 0.00 0.00 0.00 76 1019.3
20260509084048 12 176 0.0 0.0 0.00 0.00 0.00 76 1019.6
20260509083728 12 156 0.0 0.0 0.00 0.00 0.00 75 1019.6
20260509083628 13 148 0.0 0.0 0.00 0.00 0.00 75 1019.4
20260509083548 13 162 0.0 0.0 0.00 0.00 0.00 76 1019.4
20260509083528 13 129 0.0 0.0 0.00 0.00 0.00 76 1019.5
20260509083505 13 181 0.0 0.0 0.00 0.00 0.00 76 1019.6
20260509083449 13 171 0.0 1.6 0.00 0.00 0.00 76 1019.4
20260509083433 12 175 0.0 1.6 0.00 0.00 0.00 76 1019.4
20260509083417 12 161 0.0 1.6 0.00 0.00 0.00 76 1019.3
20260509083403 12 181 0.0 1.6 0.00 0.00 0.00 76 1019.3
20260509082846 12 167 0.0 1.6 0.00 0.00 0.00 75 1019.5
20260509082840 12 179 0.0 1.6 0.00 0.00 0.00 75 1019.4
20260509082823 12 182 0.0 1.6 0.00 0.00 0.00 75 1019.5
20260509082807 12 176 0.0 1.6 0.00 0.00 0.00 76 1019.5
20260509082527 12 123 0.0 1.6 0.00 0.00 0.00 75 1019.5
20260509082428 12 199 0.0 1.6 0.00 0.00 0.00 75 1019.4
20260509082327 12 175 0.0 1.6 0.00 0.00 0.00 76 1019.3
20260509082227 12 149 0.0 1.6 0.00 0.00 0.00 76 1019.3
20260509082127 12 184 0.0 1.6 0.00 0.00 0.00 76 1019.3
20260509082047 12 177 0.0 1.6 0.00 0.00 0.00 76 1019.2
20260509082028 12 174 0.0 1.6 0.00 0.00 0.00 76 1019.3
20260509081927 12 180 0.0 1.6 0.00 0.00 0.00 77 1019.2
20260509081902 12 179 0.0 1.6 0.00 0.00 0.00 76 1019.4
20260509081846 12 169 0.0 1.6 0.00 0.00 0.00 76 1019.5
20260509081548 12 116 0.0 1.6 0.00 0.00 0.00 76 1019.4
20260509081528 12 146 0.0 1.6 0.00 0.00 0.00 77 1019.4
20260509081428 12 171 0.0 1.6 0.00 0.00 0.00 77 1019.3
20260509081328 12 167 0.0 1.6 0.00 0.00 0.00 76 1019.4
20260509081228 12 60 0.0 1.6 0.00 0.00 0.00 76 1019.3
20260509081127 12 163 0.0 1.6 0.00 0.00 0.00 76 1019.3
20260509081048 12 182 0.0 1.6 0.00 0.00 0.00 76 1019.3
20260509081028 12 172 0.0 1.6 0.00 0.00 0.00 76 1019.4
20260509080927 12 173 0.0 1.6 0.00 0.00 0.00 76 1019.3
20260509080827 12 108 0.0 1.6 0.00 0.00 0.00 76 1019.5
20260509080727 12 184 0.0 1.6 0.00 0.00 0.00 76 1019.1
20260509080654 12 172 0.0 1.6 0.00 0.00 0.00 76 1019.3
20260509080647 12 178 0.0 1.6 0.00 0.00 0.00 76 1019.2
20260509080633 12 210 0.0 1.6 0.00 0.00 0.00 76 1019.2
20260509080625 12 194 0.0 1.6 0.00 0.00 0.00 77 1019.3
20260509080609 12 171 0.0 1.6 0.00 0.00 0.00 78 1019.3
20260509080554 12 169 0.0 1.6 0.00 0.00 0.00 77 1019.3
20260509080538 12 159 0.0 1.6 0.00 0.00 0.00 77 1019.5
20260509080027 12 160 0.0 1.6 0.00 0.00 0.00 76 1019.5
20260509075927 12 167 0.0 1.6 0.00 0.00 0.00 76 1019.2
20260509075827 12 101 0.0 1.6 0.00 0.00 0.00 76 1019.5
20260509075727 12 179 0.0 1.6 0.00 0.00 0.00 76 1019.3
20260509075627 12 165 0.0 1.6 0.00 0.00 0.00 75 1019.3
20260509075548 12 127 0.0 1.6 0.00 0.00 0.00 75 1019.6
20260509075527 12 183 0.0 1.6 0.00 0.00 0.00 75 1019.4
20260509075426 12 179 0.0 1.6 0.00 0.00 0.00 76 1019.2
20260509075405 12 177 0.0 1.6 0.00 0.00 0.00 75 1019.5
20260509075350 12 170 0.0 1.6 0.00 0.00 0.00 76 1019.4
20260509075335 12 159 0.0 1.6 0.00 0.00 0.00 76 1019.3
20260509075319 12 185 0.0 1.6 0.00 0.00 0.00 76 1019.3
20260509075050 12 73 0.0 0.0 0.00 0.00 0.00 77 1019.5
20260509074742 13 152 0.0 1.6 0.00 0.00 0.00 76 1019.1
20260509074736 12 177 0.0 0.0 0.00 0.00 0.00 78 1019.4
20260509074720 12 174 0.0 6.4 0.00 0.00 0.00 77 1019.3
20260509074705 12 170 0.0 6.4 0.00 0.00 0.00 77 1019.3
20260509074658 12 154 0.0 6.4 0.00 0.00 0.00 77 1019.2
20260509074433 12 137 0.0 6.4 0.00 0.00 0.00 77 1018.9
20260509074418 12 182 0.0 6.4 0.00 0.00 0.00 77 1019.5
20260509074402 12 166 0.0 6.4 0.00 0.00 0.00 77 1019.3
20260509074347 12 174 0.0 6.4 0.00 0.00 0.00 77 1019.1
20260509074332 12 178 0.0 6.4 0.00 0.00 0.00 77 1019.1
20260509074059 12 155 0.0 6.4 0.00 0.00 0.00 76 1019.2
20260509074042 12 98 0.0 6.4 0.00 0.00 0.00 76 1019.3
20260509073806 12 180 0.0 1.6 0.00 0.00 0.00 77 1019.1
20260509073529 13 94 0.0 1.6 0.00 0.00 0.00 76 1019.3
20260509073428 13 144 0.0 1.6 0.00 0.00 0.00 76 1019.5
20260509073329 13 183 0.0 1.6 0.00 0.00 0.00 76 1019.4
20260509073243 13 190 0.0 1.6 0.00 0.00 0.00 77 1019.2
20260509073237 13 167 0.0 1.6 0.00 0.00 0.00 76 1019.3
20260509073232 13 138 0.0 1.6 0.00 0.00 0.00 76 1019.3
20260509073217 13 184 0.0 1.6 0.00 0.00 0.00 76 1019.1
20260509073204 13 149 0.0 1.6 0.00 0.00 0.00 76 1019.1
20260509073154 13 173 0.0 1.6 0.00 0.00 0.00 76 1019.4
20260509073138 13 170 0.0 1.6 0.00 0.00 0.00 76 1019.3
20260509073122 13 178 0.0 1.6 0.00 0.00 0.00 76 1019.2
20260509072844 13 177 0.0 1.6 0.00 0.00 0.00 76 1019.3
20260509072618 13 74 0.0 1.6 0.00 0.00 0.00 77 1019.1
20260509072603 13 181 0.0 1.6 0.00 0.00 0.00 77 1019.4
20260509072339 13 180 0.0 1.6 0.00 0.00 0.00 76 1019.3
20260509072323 13 123 0.0 1.6 0.00 0.00 0.00 76 1019.1
20260509072307 13 190 0.0 1.6 0.00 0.00 0.00 77 1019.2
20260509072026 13 188 0.0 1.6 0.00 0.00 0.00 77 1019.4
20260509071927 13 152 0.0 1.6 0.00 0.00 0.00 77 1019.1
20260509071827 13 138 0.0 1.6 0.00 0.00 0.00 76 1019.2
20260509071728 13 175 0.0 1.6 0.00 0.00 0.00 77 1019.2
20260509071627 13 174 0.0 1.6 0.00 0.00 0.00 77 1019.3
20260509071547 13 184 0.0 1.6 0.00 0.00 0.00 77 1019.3
20260509071527 13 174 0.0 1.6 0.00 0.00 0.00 77 1019.3
20260509071432 13 171 0.0 1.6 0.00 0.00 0.00 76 1019.3
20260509071403 13 180 0.0 1.6 0.00 0.00 0.00 76 1019.2
20260509071347 13 185 0.0 1.6 0.00 0.00 0.00 76 1019.1
20260509071049 12 182 0.0 1.6 0.00 0.00 0.00 77 1019.1
20260509071028 12 176 0.0 1.6 0.00 0.00 0.00 77 1019.1
20260509070926 12 175 0.0 1.6 0.00 0.00 0.00 77 1019.2
20260509070830 12 75 0.0 1.6 0.00 0.00 0.00 77 1019.2
20260509070812 12 167 0.0 1.6 0.00 0.00 0.00 76 1019.1
20260509070755 12 184 0.0 1.6 0.00 0.00 0.00 76 1019.3
20260509070741 12 181 0.0 1.6 0.00 0.00 0.00 76 1019.3
20260509070506 12 177 0.0 1.6 0.00 0.00 0.00 76 1019.1
20260509070448 12 170 0.0 1.6 0.00 0.00 0.00 77 1019.2
20260509070127 12 178 0.0 1.6 0.00 0.00 0.00 77 1019.2
20260509070100 12 170 0.0 1.6 0.00 0.00 0.00 77 1019.2
20260509070027 12 173 0.0 1.6 0.00 0.00 0.00 77 1019.2
20260509065927 12 152 0.0 1.6 0.00 0.00 0.00 77 1019.0
20260509065827 12 121 0.0 3.2 0.00 0.00 0.00 77 1018.9
20260509065728 12 176 0.0 3.2 0.00 0.00 0.00 77 1019.0
20260509065629 12 196 0.0 3.2 0.00 0.00 0.00 77 1019.0
20260509065547 12 164 0.0 3.2 0.00 0.00 0.00 77 1019.0
20260509065527 12 139 0.0 3.2 0.00 0.00 0.00 77 1019.1
20260509065505 12 178 0.0 3.2 0.00 0.00 0.00 77 1019.2
20260509065448 12 177 0.0 3.2 0.00 0.00 0.00 78 1018.9
20260509065432 12 157 0.0 3.2 0.00 0.00 0.00 78 1019.1
20260509065157 12 139 0.0 3.2 0.00 0.00 0.00 78 1019.1
20260509065147 12 172 0.0 3.2 0.00 0.00 0.00 78 1019.0
20260509064827 12 162 0.0 1.6 0.00 0.00 0.00 78 1019.2
20260509064810 12 139 0.0 1.6 0.00 0.00 0.00 78 1019.1
20260509064755 12 165 0.0 0.0 0.00 0.00 0.00 78 1019.2
20260509064741 12 175 0.0 0.0 0.00 0.00 0.00 78 1019.2
20260509064427 12 167 0.0 0.0 0.00 0.00 0.00 79 1019.1
20260509064326 12 176 0.0 0.0 0.00 0.00 0.00 78 1019.0
20260509064227 12 176 0.0 1.6 0.00 0.00 0.00 79 1019.3
20260509064150 12 175 0.0 3.2 0.00 0.00 0.00 79 1019.0
20260509064143 12 176 0.0 3.2 0.00 0.00 0.00 79 1019.3
20260509064129 12 172 0.0 3.2 0.00 0.00 0.00 78 1019.1
20260509064119 12 169 0.0 3.2 0.00 0.00 0.00 78 1019.2
20260509064103 12 149 0.0 3.2 0.00 0.00 0.00 78 1019.0
20260509063838 12 176 0.0 3.2 0.00 0.00 0.00 79 1019.1
20260509063823 12 175 0.0 3.2 0.00 0.00 0.00 79 1019.1
20260509063807 12 175 0.0 3.2 0.00 0.00 0.00 79 1019.0
20260509063527 12 175 0.0 3.2 0.00 0.00 0.00 79 1019.0
20260509063427 12 116 0.0 3.2 0.00 0.00 0.00 79 1019.2
20260509063326 12 106 0.0 3.2 0.00 0.00 0.00 77 1019.1
20260509063227 13 67 0.0 3.2 0.00 0.00 0.00 77 1019.0
20260509063127 13 184 0.0 1.6 0.00 0.00 0.00 77 1019.0
20260509063048 13 168 0.0 1.6 0.00 0.00 0.00 77 1019.0
20260509063028 13 163 0.0 1.6 0.00 0.00 0.00 76 1019.2
20260509062927 13 184 0.0 1.6 0.00 0.00 0.00 77 1019.0
20260509062827 13 186 0.0 3.2 0.00 0.00 0.00 77 1018.7
20260509062816 12 121 0.0 3.2 0.00 0.00 0.00 77 1019.2
20260509062807 13 133 0.0 3.2 0.00 0.00 0.00 77 1019.0
20260509062750 13 163 0.0 3.2 0.00 0.00 0.00 77 1019.3
20260509062735 13 165 0.0 3.2 0.00 0.00 0.00 77 1019.3
20260509062728 12 163 0.0 3.2 0.00 0.00 0.00 76 1019.1
20260509062503 12 158 0.0 3.2 0.00 0.00 0.00 77 1018.9
20260509062447 12 94 0.0 3.2 0.00 0.00 0.00 77 1019.1
20260509062431 12 183 0.0 3.2 0.00 0.00 0.00 77 1019.0
20260509062415 12 105 0.0 3.2 0.00 0.00 0.00 77 1019.2
20260509062147 12 176 0.0 3.2 0.00 0.00 0.00 77 1019.2
20260509061826 12 173 0.0 0.0 0.00 0.00 0.00 77 1019.1
20260509061726 12 158 0.0 0.0 0.00 0.00 0.00 78 1019.2
20260509061626 12 160 0.0 0.0 0.00 0.00 0.00 78 1019.3
20260509061546 12 166 0.0 0.0 0.00 0.00 0.00 78 1019.3
20260509061526 12 141 0.0 0.0 0.00 0.00 0.00 78 1019.2
20260509061426 13 162 0.0 0.0 0.00 0.00 0.00 78 1019.1
20260509061343 13 183 0.0 0.0 0.00 0.00 0.00 78 1018.8
20260509061337 13 163 0.0 0.0 0.00 0.00 0.00 78 1019.2
20260509061322 13 176 0.0 0.0 0.00 0.00 0.00 78 1019.1
20260509061305 13 181 0.0 0.0 0.00 0.00 0.00 78 1018.8
20260509061026 13 183 0.0 0.0 0.00 0.00 0.00 78 1018.8
20260509061001 13 182 0.0 0.0 0.00 0.00 0.00 78 1019.2
20260509060946 13 161 0.0 0.0 0.00 0.00 0.00 77 1019.0
20260509060626 13 192 0.0 0.0 0.00 0.00 0.00 79 1019.1
20260509060547 13 192 0.0 0.0 0.00 0.00 0.00 79 1019.1
20260509060526 13 192 0.0 0.0 0.00 0.00 0.00 79 1019.1
20260509060426 13 194 0.0 0.0 0.00 0.00 0.00 80 1019.1
20260509060403 12 186 0.0 0.0 0.00 0.00 0.00 80 1019.1
20260509060347 12 198 0.0 0.0 0.00 0.00 0.00 81 1019.0
20260509060059 12 239 0.0 1.6 0.00 0.00 0.00 82 1019.1
20260509060026 12 196 0.0 1.6 0.00 0.00 0.00 82 1019.2
20260509055933 11 179 0.0 0.0 0.00 0.00 0.00 89 1019.2
20260509055927 11 181 0.0 1.6 0.00 0.00 0.00 83 1019.0
20260509055912 11 178 0.0 1.6 0.00 0.00 0.00 83 1019.1
20260509055856 11 175 0.0 1.6 0.00 0.00 0.00 83 1019.1
20260509055841 11 162 0.0 1.6 0.00 0.00 0.00 84 1019.2
20260509055826 11 175 0.0 1.6 0.00 0.00 0.00 84 1019.2
20260509055558 11 147 0.0 1.6 0.00 0.00 0.00 84 1019.2
20260509055543 11 163 0.0 1.6 0.00 0.00 0.00 85 1019.2
20260509055307 11 152 0.0 0.0 0.00 0.00 0.00 86 1019.2
20260509055251 11 143 0.0 0.0 0.00 0.00 0.00 86 1019.2
20260509055241 11 164 0.0 0.0 0.00 0.00 0.00 86 1019.1
20260509055007 11 177 0.0 0.0 0.00 0.00 0.00 88 1019.1
20260509054951 11 173 0.0 0.0 0.00 0.00 0.00 88 1019.1
20260509054936 11 172 0.0 0.0 0.00 0.00 0.00 89 1019.2
20260509054709 10 179 0.0 0.0 0.00 0.00 0.00 89 1019.2
20260509054654 10 178 0.0 0.0 0.00 0.00 0.00 89 1019.1
20260509054114 10 178 0.0 0.0 0.00 0.00 0.00 89 1019.0
20260509054046 10 176 0.0 0.0 0.00 0.00 0.00 89 1019.0
20260509054014 10 168 0.0 0.0 0.00 0.00 0.00 89 1019.0
20260509053958 10 173 0.0 0.0 0.00 0.00 0.00 89 1019.2
20260509053949 10 167 0.0 0.0 0.00 0.00 0.00 89 1019.2
20260509053932 10 176 0.0 0.0 0.00 0.00 0.00 89 1019.2
20260509053917 10 176 0.0 0.0 0.00 0.00 0.00 89 1018.9
20260509053901 10 176 0.0 0.0 0.00 0.00 0.00 89 1019.2
20260509053634 10 145 0.0 0.0 0.00 0.00 0.00 89 1019.1
20260509053314 10 170 0.0 0.0 0.00 0.00 0.00 89 1019.0
20260509053214 10 180 0.0 0.0 0.00 0.00 0.00 89 1018.9
20260509053114 10 177 0.0 0.0 0.00 0.00 0.00 89 1019.0
20260509053046 10 174 0.0 0.0 0.00 0.00 0.00 89 1019.0
20260509053014 10 161 0.0 0.0 0.00 0.00 0.00 89 1019.3
20260509052915 10 176 0.0 0.0 0.00 0.00 0.00 89 1019.1
20260509052815 10 169 0.0 0.0 0.00 0.00 0.00 89 1019.1
20260509052714 10 174 0.0 0.0 0.00 0.00 0.00 89 1019.0
20260509052615 10 168 0.0 0.0 0.00 0.00 0.00 89 1019.2
20260509052546 10 169 0.0 0.0 0.00 0.00 0.00 89 1019.2
20260509052514 10 170 0.0 0.0 0.00 0.00 0.00 89 1019.1
20260509052414 10 178 0.0 0.0 0.00 0.00 0.00 89 1019.0
20260509052314 10 177 0.0 0.0 0.00 0.00 0.00 90 1019.1
20260509052214 10 157 0.0 0.0 0.00 0.00 0.00 90 1019.1
20260509052114 10 175 0.0 0.0 0.00 0.00 0.00 90 1019.1
20260509052046 10 174 0.0 0.0 0.00 0.00 0.00 90 1019.1
20260509052014 10 172 0.0 0.0 0.00 0.00 0.00 90 1019.1
20260509051914 10 166 0.0 0.0 0.00 0.00 0.00 90 1019.1
20260509051814 10 175 0.0 0.0 0.00 0.00 0.00 91 1019.2
20260509051714 10 176 0.0 0.0 0.00 0.00 0.00 91 1019.0
20260509051614 10 177 0.0 0.0 0.00 0.00 0.00 91 1018.9
20260509051547 10 177 0.0 0.0 0.00 0.00 0.00 91 1018.9
20260509051514 10 175 0.0 0.0 0.00 0.00 0.00 91 1019.0
20260509051414 10 174 0.0 0.0 0.00 0.00 0.00 91 1019.2
20260509051314 10 164 0.0 0.0 0.00 0.00 0.00 91 1019.2
20260509051214 10 168 0.0 0.0 0.00 0.00 0.00 91 1019.1
20260509051114 10 171 0.0 0.0 0.00 0.00 0.00 91 1019.4
20260509051047 10 165 0.0 0.0 0.00 0.00 0.00 91 1019.4
20260509051014 10 178 0.0 0.0 0.00 0.00 0.00 91 1019.1
20260509050914 10 180 0.0 0.0 0.00 0.00 0.00 91 1019.3
20260509050814 10 183 0.0 0.0 0.00 0.00 0.00 91 1019.1
20260509050714 10 183 0.0 0.0 0.00 0.00 0.00 91 1019.1
20260509050658 10 183 0.0 0.0 0.00 0.00 0.00 91 1019.2
20260509050645 10 182 0.0 0.0 0.00 0.00 0.00 91 1019.2
20260509050635 10 186 0.0 0.0 0.00 0.00 0.00 91 1019.1
20260509050351 10 186 0.0 0.0 0.00 0.00 0.00 92 1019.2
20260509050335 10 185 0.0 0.0 0.00 0.00 0.00 91 1018.9
20260509050319 10 185 0.0 0.0 0.00 0.00 0.00 91 1018.9
20260509050305 10 185 0.0 0.0 0.00 0.00 0.00 92 1018.9
20260509050254 10 186 0.0 0.0 0.00 0.00 0.00 92 1018.9
20260509045714 9 186 0.0 0.0 0.00 0.00 0.00 92 1019.1
20260509045644 9 184 0.0 0.0 0.00 0.00 0.00 92 1018.8
20260509045631 9 184 0.0 0.0 0.00 0.00 0.00 92 1018.8
20260509045622 9 185 0.0 0.0 0.00 0.00 0.00 92 1018.9
20260509045339 9 186 0.0 0.0 0.00 0.00 0.00 92 1019.1
20260509045322 9 185 0.0 0.0 0.00 0.00 0.00 92 1018.8
20260509045046 9 185 0.0 0.0 0.00 0.00 0.00 92 1018.8
20260509045002 9 184 0.0 0.0 0.00 0.00 0.00 92 1019.0
20260509044902 9 187 0.0 0.0 0.00 0.00 0.00 92 1018.8
20260509044837 9 186 0.0 0.0 0.00 0.00 0.00 92 1018.9
20260509044821 9 186 0.0 0.0 0.00 0.00 0.00 92 1018.8
20260509044546 9 186 0.0 0.0 0.00 0.00 0.00 92 1019.0
20260509044502 9 186 0.0 0.0 0.00 0.00 0.00 92 1018.9
20260509044402 9 186 0.0 0.0 0.00 0.00 0.00 92 1018.7
20260509044302 9 186 0.0 0.0 0.00 0.00 0.00 92 1019.0
20260509044203 9 186 0.0 0.0 0.00 0.00 0.00 92 1019.0
20260509044101 9 186 0.0 0.0 0.00 0.00 0.00 92 1019.1
20260509044046 9 186 0.0 0.0 0.00 0.00 0.00 92 1019.1
20260509044002 9 186 0.0 0.0 0.00 0.00 0.00 92 1018.9
20260509043902 9 186 0.0 0.0 0.00 0.00 0.00 92 1018.9
20260509043802 9 186 0.0 0.0 0.00 0.00 0.00 92 1019.1
20260509043702 9 186 0.0 0.0 0.00 0.00 0.00 92 1019.1
20260509043546 9 186 0.0 0.0 0.00 0.00 0.00 92 1019.1
20260509043523 9 186 0.0 0.0 0.00 0.00 0.00 92 1018.9
20260509043203 9 186 0.0 0.0 0.00 0.00 0.00 92 1019.0
20260509043103 9 185 0.0 0.0 0.00 0.00 0.00 92 1019.0
20260509043046 9 185 0.0 0.0 0.00 0.00 0.00 92 1019.0
20260509043002 9 185 0.0 0.0 0.00 0.00 0.00 92 1018.9
20260509042902 9 185 0.0 0.0 0.00 0.00 0.00 92 1018.9
20260509042838 9 185 0.0 0.0 0.00 0.00 0.00 91 1019.1
20260509042823 9 185 0.0 0.0 0.00 0.00 0.00 92 1019.0
20260509042546 9 185 0.0 0.0 0.00 0.00 0.00 92 1019.0
20260509042503 9 185 0.0 0.0 0.00 0.00 0.00 92 1019.1
20260509042403 9 185 0.0 0.0 0.00 0.00 0.00 92 1019.2
20260509042343 9 182 0.0 0.0 0.00 0.00 0.00 92 1018.9
20260509042334 9 182 0.0 0.0 0.00 0.00 0.00 92 1018.9
20260509042318 9 182 0.0 0.0 0.00 0.00 0.00 92 1018.9
20260509042300 9 182 0.0 0.0 0.00 0.00 0.00 92 1018.9
20260509041950 9 182 0.0 0.0 0.00 0.00 0.00 92 1018.9
20260509041850 9 181 0.0 0.0 0.00 0.00 0.00 92 1018.8
20260509041751 9 181 0.0 0.0 0.00 0.00 0.00 92 1018.9
20260509041718 9 181 0.0 0.0 0.00 0.00 0.00 92 1018.9
20260509041656 9 179 0.0 0.0 0.00 0.00 0.00 91 1019.0
20260509041640 9 180 0.0 0.0 0.00 0.00 0.00 91 1019.0
20260509041626 9 180 0.0 0.0 0.00 0.00 0.00 91 1018.9
20260509041350 9 178 0.0 0.0 0.00 0.00 0.00 91 1018.8
20260509041328 9 178 0.0 0.0 0.00 0.00 0.00 91 1018.8
20260509041049 9 174 0.0 0.0 0.00 0.00 0.00 91 1018.7
20260509040814 8 178 0.0 0.0 0.00 0.00 0.00 91 1019.0
20260509040546 8 176 0.0 0.0 0.00 0.00 0.00 91 1019.0
20260509040521 9 174 0.0 0.0 0.00 0.00 0.00 91 1019.1
20260509040506 9 161 0.0 0.0 0.00 0.00 0.00 91 1018.9
20260509040230 9 180 0.0 0.0 0.00 0.00 0.00 91 1018.8
20260509040207 9 178 0.0 0.0 0.00 0.00 0.00 91 1018.7
20260509035847 8 175 0.0 0.0 0.00 0.00 0.00 91 1018.8
20260509035837 8 181 0.0 0.0 0.00 0.00 0.00 91 1018.8
20260509035827 8 151 0.0 0.0 0.00 0.00 0.00 91 1018.8
20260509035812 8 181 0.0 0.0 0.00 0.00 0.00 91 1018.7
20260509035755 8 181 0.0 0.0 0.00 0.00 0.00 91 1018.8
20260509035446 8 182 0.0 0.0 0.00 0.00 0.00 91 1018.9
20260509035346 8 178 0.0 0.0 0.00 0.00 0.00 91 1018.9
20260509035247 9 175 0.0 0.0 0.00 0.00 0.00 91 1018.9
20260509035231 9 173 0.0 0.0 0.00 0.00 0.00 90 1019.1
20260509035208 9 180 0.0 0.0 0.00 0.00 0.00 90 1018.8
20260509034846 9 178 0.0 0.0 0.00 0.00 0.00 90 1018.8
20260509034746 9 180 0.0 0.0 0.00 0.00 0.00 90 1018.8
20260509034646 9 178 0.0 0.0 0.00 0.00 0.00 90 1018.8
20260509034546 9 178 0.0 0.0 0.00 0.00 0.00 90 1018.8
20260509034523 9 178 0.0 0.0 0.00 0.00 0.00 90 1018.9
20260509034506 9 177 0.0 1.6 0.00 0.00 0.00 90 1018.8
20260509034146 9 185 0.0 1.6 0.00 0.00 0.00 90 1018.7
20260509034047 9 185 0.0 1.6 0.00 0.00 0.00 90 1018.9
20260509034024 9 190 0.0 1.6 0.00 0.00 0.00 89 1018.5
20260509034008 9 199 0.0 1.6 0.00 0.00 0.00 89 1018.9
20260509033648 9 199 0.0 1.6 0.00 0.00 0.00 89 1018.8
20260509033547 9 199 0.0 1.6 0.00 0.00 0.00 89 1018.8
20260509033446 9 198 0.0 1.6 0.00 0.00 0.00 90 1018.8
20260509033347 9 189 0.0 1.6 0.00 0.00 0.00 89 1018.5
20260509033246 9 189 0.0 1.6 0.00 0.00 0.00 89 1018.8
20260509033148 9 189 0.0 1.6 0.00 0.00 0.00 89 1018.8
20260509033047 9 189 0.0 1.6 0.00 0.00 0.00 89 1018.8
20260509032947 9 189 0.0 1.6 0.00 0.00 0.00 89 1018.5
20260509032846 9 187 0.0 1.6 0.00 0.00 0.00 90 1018.7
20260509032747 9 187 0.0 1.6 0.00 0.00 0.00 90 1018.7
20260509032646 9 187 0.0 1.6 0.00 0.00 0.00 90 1018.7
20260509032551 9 179 0.0 1.6 0.00 0.00 0.00 90 1018.5
20260509032530 9 187 0.0 0.0 0.00 0.00 0.00 89 1018.8
20260509032520 9 177 0.0 1.6 0.00 0.00 0.00 90 1018.4
20260509032505 9 174 0.0 1.6 0.00 0.00 0.00 89 1018.8
20260509032450 9 192 0.0 1.6 0.00 0.00 0.00 89 1018.7
20260509032435 9 188 0.0 0.0 0.00 0.00 0.00 89 1018.8
20260509032417 9 187 0.0 0.0 0.00 0.00 0.00 89 1018.8
20260509031846 9 187 0.0 0.0 0.00 0.00 0.00 89 1018.9
20260509031746 9 187 0.0 0.0 0.00 0.00 0.00 89 1018.8
20260509031646 9 187 0.0 0.0 0.00 0.00 0.00 89 1018.5
20260509031547 9 187 0.0 0.0 0.00 0.00 0.00 89 1018.5
20260509031435 9 186 0.0 0.0 0.00 0.00 0.00 89 1018.5
20260509031334 9 186 0.0 0.0 0.00 0.00 0.00 89 1018.7
20260509031234 9 186 0.0 0.0 0.00 0.00 0.00 89 1018.9
20260509031134 9 186 0.0 0.0 0.00 0.00 0.00 89 1018.5
20260509031036 9 186 0.0 0.0 0.00 0.00 0.00 89 1018.9
20260509030935 9 186 0.0 0.0 0.00 0.00 0.00 89 1018.8
20260509030834 9 187 0.0 0.0 0.00 0.00 0.00 89 1018.5
20260509030734 9 187 0.0 0.0 0.00 0.00 0.00 89 1019.0
20260509030633 9 187 0.0 0.0 0.00 0.00 0.00 89 1018.8
20260509030533 9 187 0.0 0.0 0.00 0.00 0.00 89 1019.0
20260509030434 9 187 0.0 0.0 0.00 0.00 0.00 89 1019.0
20260509030335 9 187 0.0 0.0 0.00 0.00 0.00 89 1018.7
20260509030234 9 187 0.0 0.0 0.00 0.00 0.00 89 1018.7
20260509030134 9 187 0.0 0.0 0.00 0.00 0.00 90 1018.8
20260509030035 9 187 0.0 0.0 0.00 0.00 0.00 90 1018.7
20260509025934 9 189 0.0 0.0 0.00 0.00 0.00 90 1018.8
20260509025834 9 189 0.0 0.0 0.00 0.00 0.00 90 1018.9
20260509025817 9 189 0.0 0.0 0.00 0.00 0.00 90 1018.8
20260509025801 9 189 0.0 0.0 0.00 0.00 0.00 90 1018.9
20260509025534 9 190 0.0 0.0 0.00 0.00 0.00 91 1018.8
20260509025511 9 190 0.0 0.0 0.00 0.00 0.00 91 1018.7
20260509025454 9 190 0.0 0.0 0.00 0.00 0.00 91 1018.8
20260509025438 9 190 0.0 0.0 0.00 0.00 0.00 91 1018.8
20260509025423 8 190 0.0 0.0 0.00 0.00 0.00 91 1018.8
20260509025155 8 190 0.0 0.0 0.00 0.00 0.00 91 1018.5
20260509024838 8 190 0.0 0.0 0.00 0.00 0.00 92 1018.9
20260509024834 8 190 0.0 0.0 0.00 0.00 0.00 91 1018.7
20260509024819 8 190 0.0 0.0 0.00 0.00 0.00 91 1019.0
20260509024802 8 190 0.0 0.0 0.00 0.00 0.00 91 1018.9
20260509024745 8 190 0.0 0.0 0.00 0.00 0.00 92 1018.9
20260509024434 8 190 0.0 0.0 0.00 0.00 0.00 92 1018.5
20260509024334 8 190 0.0 0.0 0.00 0.00 0.00 92 1018.7
20260509024235 8 190 0.0 0.0 0.00 0.00 0.00 92 1018.8
20260509024219 8 190 0.0 0.0 0.00 0.00 0.00 92 1018.9
20260509024154 8 190 0.0 0.0 0.00 0.00 0.00 92 1018.9
20260509023834 8 190 0.0 1.6 0.00 0.00 0.00 93 1018.8
20260509023734 8 190 0.0 1.6 0.00 0.00 0.00 93 1018.7
20260509023633 8 190 0.0 1.6 0.00 0.00 0.00 93 1018.5
20260509023610 8 190 0.0 1.6 0.00 0.00 0.00 93 1018.7
20260509023554 8 190 0.0 1.6 0.00 0.00 0.00 93 1018.7
20260509023318 8 190 0.0 1.6 0.00 0.00 0.00 94 1018.7
20260509023303 8 190 0.0 1.6 0.00 0.00 0.00 94 1018.8
20260509023035 9 190 0.0 1.6 0.00 0.00 0.00 94 1018.9
20260509022935 9 188 0.0 0.0 0.00 0.00 0.00 94 1019.0
20260509022834 9 188 0.0 0.0 0.00 0.00 0.00 94 1018.9
20260509022734 9 188 0.0 0.0 0.00 0.00 0.00 94 1018.9
20260509022634 9 188 0.0 0.0 0.00 0.00 0.00 94 1018.7
20260509022534 9 188 0.0 0.0 0.00 0.00 0.00 94 1018.7
20260509022433 9 188 0.0 0.0 0.00 0.00 0.00 94 1019.0
20260509022334 9 188 0.0 0.0 0.00 0.00 0.00 94 1018.7
20260509022234 9 188 0.0 0.0 0.00 0.00 0.00 94 1018.7
20260509022135 9 188 0.0 0.0 0.00 0.00 0.00 94 1018.9
20260509022034 9 188 0.0 0.0 0.00 0.00 0.00 94 1018.8
20260509021934 9 188 0.0 0.0 0.00 0.00 0.00 94 1018.8
20260509021833 9 188 0.0 0.0 0.00 0.00 0.00 94 1018.9
20260509021808 9 188 0.0 0.0 0.00 0.00 0.00 94 1018.9
20260509021751 9 188 0.0 0.0 0.00 0.00 0.00 94 1018.8
20260509021729 9 188 0.0 0.0 0.00 0.00 0.00 94 1018.8
20260509021454 9 188 0.0 0.0 0.00 0.00 0.00 94 1018.9
20260509021438 9 188 0.0 0.0 0.00 0.00 0.00 94 1018.7
20260509021423 9 188 0.0 0.0 0.00 0.00 0.00 94 1018.7
20260509021154 9 186 0.0 0.0 0.00 0.00 0.00 94 1018.5
20260509020835 9 183 0.0 0.0 0.00 0.00 0.00 93 1018.7
20260509020734 9 183 0.0 0.0 0.00 0.00 0.00 93 1018.5
20260509020640 9 183 0.0 0.0 0.00 0.00 0.00 93 1018.5
20260509020635 9 183 0.0 0.0 0.00 0.00 0.00 93 1018.8
20260509020613 9 183 0.0 0.0 0.00 0.00 0.00 93 1018.5
20260509020557 9 183 0.0 0.0 0.00 0.00 0.00 93 1018.7
20260509020542 9 183 0.0 0.0 0.00 0.00 0.00 93 1018.7
20260509020305 9 183 0.0 0.0 0.00 0.00 0.00 93 1018.9
20260509020246 9 183 0.0 0.0 0.00 0.00 0.00 93 1018.5
20260509020011 9 183 0.0 0.0 0.00 0.00 0.00 93 1018.5
20260509015955 9 183 0.0 0.0 0.00 0.00 0.00 93 1018.7
20260509015634 9 182 0.0 0.0 0.00 0.00 0.00 93 1018.5
20260509015534 9 183 0.0 0.0 0.00 0.00 0.00 93 1018.9
20260509015434 9 183 0.0 0.0 0.00 0.00 0.00 93 1018.5
20260509015334 9 183 0.0 0.0 0.00 0.00 0.00 93 1018.4
20260509015235 9 182 0.0 0.0 0.00 0.00 0.00 93 1018.8
20260509015219 9 182 0.0 0.0 0.00 0.00 0.00 93 1018.7
20260509015154 9 182 0.0 0.0 0.00 0.00 0.00 93 1018.7
20260509014833 9 182 0.0 0.0 0.00 0.00 0.00 93 1018.7
20260509014734 9 182 0.0 0.0 0.00 0.00 0.00 93 1018.5
20260509014634 9 183 0.0 0.0 0.00 0.00 0.00 93 1018.7
20260509014535 9 183 0.0 0.0 0.00 0.00 0.00 93 1018.8
20260509014435 9 183 0.0 0.0 0.00 0.00 0.00 93 1018.4
20260509014334 9 182 0.0 0.0 0.00 0.00 0.00 93 1018.7
20260509014234 9 182 0.0 0.0 0.00 0.00 0.00 93 1018.9
20260509014135 9 182 0.0 0.0 0.00 0.00 0.00 93 1018.7
20260509014035 9 182 0.0 0.0 0.00 0.00 0.00 93 1018.8
20260509013934 9 182 0.0 0.0 0.00 0.00 0.00 92 1018.5
20260509013835 9 182 0.0 0.0 0.00 0.00 0.00 92 1019.0
20260509013734 9 182 0.0 0.0 0.00 0.00 0.00 92 1018.9
20260509013634 9 182 0.0 0.0 0.00 0.00 0.00 92 1018.7
20260509013535 9 182 0.0 0.0 0.00 0.00 0.00 92 1018.9
20260509013509 9 182 0.0 0.0 0.00 0.00 0.00 92 1018.5
20260509013454 9 182 0.0 0.0 0.00 0.00 0.00 92 1019.0
20260509013134 9 183 0.0 0.0 0.00 0.00 0.00 92 1018.8
20260509013118 9 182 0.0 0.0 0.00 0.00 0.00 92 1018.7
20260509013111 9 182 0.0 0.0 0.00 0.00 0.00 92 1018.9
20260509013055 9 183 0.0 0.0 0.00 0.00 0.00 92 1018.4
20260509013039 9 182 0.0 0.0 0.00 0.00 0.00 92 1018.9
20260509013023 9 182 0.0 0.0 0.00 0.00 0.00 92 1018.9
20260509013008 9 182 0.0 0.0 0.00 0.00 0.00 92 1018.7
20260509012952 9 182 0.0 0.0 0.00 0.00 0.00 92 1018.8
20260509012935 9 182 0.0 0.0 0.00 0.00 0.00 92 1018.7
20260509012710 9 182 0.0 0.0 0.00 0.00 0.00 92 1018.5
20260509012654 9 182 0.0 0.0 0.00 0.00 0.00 92 1018.7
20260509012418 9 182 0.0 0.0 0.00 0.00 0.00 92 1019.0
20260509012358 9 182 0.0 0.0 0.00 0.00 0.00 92 1018.9
20260509012131 9 182 0.0 0.0 0.00 0.00 0.00 92 1018.9
20260509012114 9 182 0.0 0.0 0.00 0.00 0.00 92 1018.8
20260509012058 9 182 0.0 0.0 0.00 0.00 0.00 92 1018.7
20260509012041 9 182 0.0 0.0 0.00 0.00 0.00 92 1018.7
20260509011814 9 182 0.0 0.0 0.00 0.00 0.00 92 1018.7
20260509011234 9 182 0.0 0.0 0.00 0.00 0.00 92 1018.5
20260509011140 9 182 0.0 0.0 0.00 0.00 0.00 91 1018.7
20260509011034 10 182 0.0 0.0 0.00 0.00 0.00 91 1018.8
20260509010934 10 182 0.0 0.0 0.00 0.00 0.00 91 1018.5
20260509010834 10 182 0.0 0.0 0.00 0.00 0.00 91 1018.4
20260509010734 9 182 0.0 0.0 0.00 0.00 0.00 91 1018.8
20260509010634 9 182 0.0 0.0 0.00 0.00 0.00 91 1018.7
20260509010534 9 182 0.0 0.0 0.00 0.00 0.00 91 1018.9
20260509010511 9 182 0.0 0.0 0.00 0.00 0.00 91 1018.8
20260509010455 9 182 0.0 0.0 0.00 0.00 0.00 91 1018.8
20260509010218 9 182 0.0 0.0 0.00 0.00 0.00 91 1018.5
20260509010155 9 182 0.0 0.0 0.00 0.00 0.00 91 1018.7
20260509005833 9 182 0.0 0.0 0.00 0.00 0.00 91 1018.8
20260509005817 9 183 0.0 0.0 0.00 0.00 0.00 91 1018.8
20260509005801 9 182 0.0 0.0 0.00 0.00 0.00 91 1018.7
20260509005534 9 182 0.0 0.0 0.00 0.00 0.00 91 1018.9
20260509005434 9 182 0.0 0.0 0.00 0.00 0.00 91 1018.9
20260509005339 9 182 0.0 0.0 0.00 0.00 0.00 91 1018.8
20260509005334 9 182 0.0 0.0 0.00 0.00 0.00 91 1019.0
20260509005318 9 182 0.0 0.0 0.00 0.00 0.00 91 1018.9
20260509005306 9 182 0.0 0.0 0.00 0.00 0.00 91 1018.8
20260509005242 9 182 0.0 0.0 0.00 0.00 0.00 91 1018.8
20260509004739 9 182 0.0 0.0 0.00 0.00 0.00 91 1018.7
20260509004427 9 182 0.0 0.0 0.00 0.00 0.00 91 1018.9
20260509004402 9 182 0.0 0.0 0.00 0.00 0.00 91 1018.9
20260509004347 9 182 0.0 0.0 0.00 0.00 0.00 92 1018.8
20260509004047 9 182 0.0 0.0 0.00 0.00 0.00 92 1018.8
20260509004028 9 182 0.0 0.0 0.00 0.00 0.00 92 1018.7
20260509003927 9 182 0.0 0.0 0.00 0.00 0.00 92 1018.7
20260509003827 9 182 0.0 0.0 0.00 0.00 0.00 92 1018.7
20260509003728 9 182 0.0 0.0 0.00 0.00 0.00 92 1018.8
20260509003627 9 182 0.0 0.0 0.00 0.00 0.00 92 1019.0
20260509003548 9 182 0.0 0.0 0.00 0.00 0.00 92 1019.0
20260509003527 10 182 0.0 0.0 0.00 0.00 0.00 91 1018.9
20260509003428 10 182 0.0 0.0 0.00 0.00 0.00 91 1019.1
20260509003327 10 182 0.0 0.0 0.00 0.00 0.00 92 1018.8
20260509003228 10 182 0.0 0.0 0.00 0.00 0.00 92 1018.9
20260509003211 10 182 0.0 0.0 0.00 0.00 0.00 91 1019.0
20260509003154 10 182 0.0 0.0 0.00 0.00 0.00 91 1019.0
20260509003146 10 182 0.0 0.0 0.00 0.00 0.00 91 1019.1
20260509002828 10 182 0.0 0.0 0.00 0.00 0.00 91 1019.0
20260509002729 10 182 0.0 0.0 0.00 0.00 0.00 91 1019.0
20260509002627 10 182 0.0 0.0 0.00 0.00 0.00 91 1019.2
20260509002612 10 182 0.0 0.0 0.00 0.00 0.00 91 1019.0
20260509002604 10 182 0.0 0.0 0.00 0.00 0.00 91 1019.2
20260509002556 10 182 0.0 0.0 0.00 0.00 0.00 91 1019.1
20260509002541 10 182 0.0 0.0 0.00 0.00 0.00 91 1018.9
20260509002525 10 182 0.0 0.0 0.00 0.00 0.00 91 1019.1
20260509002508 10 182 0.0 0.0 0.00 0.00 0.00 91 1018.9
20260509002453 10 182 0.0 0.0 0.00 0.00 0.00 91 1019.0
20260509002223 10 182 0.0 0.0 0.00 0.00 0.00 91 1019.2
20260509001947 10 182 0.0 0.0 0.00 0.00 0.00 91 1019.0
20260509001628 10 182 0.0 0.0 0.00 0.00 0.00 90 1018.9
20260509001547 10 182 0.0 0.0 0.00 0.00 0.00 90 1018.9
20260509001527 10 182 0.0 0.0 0.00 0.00 0.00 90 1019.2
20260509001427 10 182 0.0 0.0 0.00 0.00 0.00 90 1019.1
20260509001327 10 182 0.0 0.0 0.00 0.00 0.00 90 1019.1
20260509001228 10 182 0.0 0.0 0.00 0.00 0.00 90 1019.1
20260509001128 10 182 0.0 0.0 0.00 0.00 0.00 90 1019.1
20260509001027 10 182 0.0 0.0 0.00 0.00 0.00 90 1019.1
20260509000927 10 182 0.0 0.0 0.00 0.00 0.00 90 1019.1
20260509000827 10 182 0.0 0.0 0.00 0.00 0.00 90 1019.2
20260509000728 10 181 0.0 0.0 0.00 0.00 0.00 90 1019.1
20260509000700 10 181 0.0 0.0 0.00 0.00 0.00 90 1019.1
20260509000646 10 181 0.0 0.0 0.00 0.00 0.00 90 1019.1
20260509000638 10 181 0.0 0.0 0.00 0.00 0.00 90 1019.0
20260509000621 10 181 0.0 0.0 0.00 0.00 0.00 90 1019.0
20260509000606 10 181 0.0 0.0 0.00 0.00 0.00 90 1019.0
20260509000027 10 181 0.0 0.0 0.00 0.00 0.00 90 1019.3
20260508235926 10 181 0.0 0.0 0.00 0.00 0.00 90 1019.1
20260508235828 10 181 0.0 0.0 0.00 0.00 0.00 90 1019.1
20260508235727 10 181 0.0 0.0 0.00 0.00 0.00 90 1019.3
20260508235701 10 181 0.0 0.0 0.00 0.00 0.00 90 1019.1
20260508235639 10 181 0.0 0.0 0.00 0.00 0.00 90 1019.1
20260508235622 10 181 0.0 0.0 0.00 0.00 0.00 90 1019.0
20260508235606 10 181 0.0 0.0 0.00 0.00 0.00 90 1019.1
20260508235331 10 181 0.0 0.0 0.00 0.00 0.00 90 1019.2
20260508235314 10 181 0.0 0.0 0.00 0.00 0.00 90 1019.2
20260508235307 10 181 0.0 0.0 0.00 0.00 0.00 90 1019.0
20260508235250 10 181 0.0 0.0 0.00 0.00 0.00 90 1019.2
20260508234753 10 181 0.0 0.0 0.00 0.00 0.00 90 1019.3
20260508234738 10 181 0.0 0.0 0.00 0.00 0.00 90 1019.3
20260508234428 10 181 0.0 0.0 0.00 0.00 0.00 90 1019.1
20260508234329 10 181 0.0 0.0 0.00 0.00 0.00 90 1019.3
20260508234313 10 181 0.0 0.0 0.00 0.00 0.00 90 1019.2
20260508234258 10 181 0.0 0.0 0.00 0.00 0.00 90 1019.1
20260508234240 10 181 0.0 0.0 0.00 0.00 0.00 90 1019.1
20260508233927 10 181 0.0 0.0 0.00 0.00 0.00 90 1019.1
20260508233827 10 181 0.0 0.0 0.00 0.00 0.00 90 1019.2
20260508233727 10 181 0.0 0.0 0.00 0.00 0.00 90 1019.2
20260508233628 10 181 0.0 0.0 0.00 0.00 0.00 90 1019.1
20260508233549 10 181 0.0 0.0 0.00 0.00 0.00 90 1019.1
20260508233527 10 181 0.0 0.0 0.00 0.00 0.00 90 1019.2
20260508233427 10 181 0.0 0.0 0.00 0.00 0.00 90 1019.2
20260508233404 10 181 0.0 0.0 0.00 0.00 0.00 90 1019.2
20260508233347 10 181 0.0 0.0 0.00 0.00 0.00 90 1019.3
20260508233047 10 181 0.0 0.0 0.00 0.00 0.00 90 1019.1
20260508233027 10 181 0.0 0.0 0.00 0.00 0.00 90 1019.2
20260508232927 10 181 0.0 0.0 0.00 0.00 0.00 90 1019.2
20260508232903 10 181 0.0 0.0 0.00 0.00 0.00 90 1019.1
20260508232848 10 181 0.0 0.0 0.00 0.00 0.00 90 1018.9
20260508232547 10 180 0.0 0.0 0.00 0.00 0.00 90 1019.2
20260508232527 10 181 0.0 0.0 0.00 0.00 0.00 90 1019.2
20260508232427 10 181 0.0 0.0 0.00 0.00 0.00 90 1019.1
20260508232327 10 180 0.0 0.0 0.00 0.00 0.00 90 1019.3
20260508232227 10 181 0.0 0.0 0.00 0.00 0.00 90 1019.1
20260508232127 10 181 0.0 0.0 0.00 0.00 0.00 90 1019.2
20260508232026 10 181 0.0 0.0 0.00 0.00 0.00 90 1019.2
20260508231927 10 181 0.0 0.0 0.00 0.00 0.00 90 1019.2
20260508231827 10 180 0.0 0.0 0.00 0.00 0.00 90 1019.2
20260508231727 10 180 0.0 0.0 0.00 0.00 0.00 90 1019.0
20260508231642 10 180 0.0 0.0 0.00 0.00 0.00 89 1019.3
20260508231637 10 180 0.0 0.0 0.00 0.00 0.00 89 1019.0
20260508231622 10 181 0.0 0.0 0.00 0.00 0.00 89 1019.0
20260508231615 10 181 0.0 0.0 0.00 0.00 0.00 89 1019.3
20260508231559 10 181 0.0 0.0 0.00 0.00 0.00 89 1019.4
20260508231324 10 181 0.0 0.0 0.00 0.00 0.00 89 1019.4
20260508231308 10 181 0.0 0.0 0.00 0.00 0.00 89 1019.3
20260508231028 10 180 0.0 0.0 0.00 0.00 0.00 89 1019.3
20260508230928 10 180 0.0 0.0 0.00 0.00 0.00 89 1019.3
20260508230827 10 180 0.0 0.0 0.00 0.00 0.00 89 1019.3
20260508230727 10 180 0.0 0.0 0.00 0.00 0.00 89 1019.3
20260508230627 10 180 0.0 0.0 0.00 0.00 0.00 89 1019.2
20260508230548 10 180 0.0 0.0 0.00 0.00 0.00 89 1019.2
20260508230527 10 180 0.0 0.0 0.00 0.00 0.00 89 1019.3
20260508230429 10 180 0.0 0.0 0.00 0.00 0.00 89 1019.3
20260508230328 10 180 0.0 0.0 0.00 0.00 0.00 89 1019.2
20260508230227 10 180 0.0 0.0 0.00 0.00 0.00 89 1019.2
20260508230130 10 180 0.0 0.0 0.00 0.00 0.00 89 1019.1
20260508230113 10 180 0.0 0.0 0.00 0.00 0.00 89 1019.1
20260508230105 10 180 0.0 0.0 0.00 0.00 0.00 89 1019.2
20260508230049 10 180 0.0 0.0 0.00 0.00 0.00 89 1019.3
20260508225728 10 180 0.0 0.0 0.00 0.00 0.00 89 1019.3
20260508225626 10 180 0.0 0.0 0.00 0.00 0.00 89 1019.3
20260508225547 10 180 0.0 0.0 0.00 0.00 0.00 89 1019.3
20260508225527 10 180 0.0 0.0 0.00 0.00 0.00 89 1019.4
20260508225427 10 180 0.0 0.0 0.00 0.00 0.00 89 1019.2
20260508225327 10 180 0.0 0.0 0.00 0.00 0.00 89 1019.3
20260508225228 10 180 0.0 0.0 0.00 0.00 0.00 89 1019.3
20260508225128 10 180 0.0 0.0 0.00 0.00 0.00 89 1019.3
20260508225027 10 180 0.0 0.0 0.00 0.00 0.00 89 1019.3
20260508224923 10 180 0.0 0.0 0.00 0.00 0.00 89 1019.2
20260508224823 10 180 0.0 0.0 0.00 0.00 0.00 89 1019.4
20260508224723 10 180 0.0 0.0 0.00 0.00 0.00 89 1019.4
20260508224657 10 180 0.0 0.0 0.00 0.00 0.00 89 1019.6
20260508224643 10 180 0.0 0.0 0.00 0.00 0.00 89 1019.6
20260508224634 10 180 0.0 0.0 0.00 0.00 0.00 89 1019.5
20260508224618 10 180 0.0 0.0 0.00 0.00 0.00 89 1019.2
20260508224603 10 180 0.0 0.0 0.00 0.00 0.00 89 1019.5
20260508224547 10 180 0.0 0.0 0.00 0.00 0.00 89 1019.3
20260508224311 10 180 0.0 0.0 0.00 0.00 0.00 89 1019.2
20260508224303 10 180 0.0 0.0 0.00 0.00 0.00 89 1019.3
20260508223724 10 180 0.0 0.0 0.00 0.00 0.00 89 1019.2
20260508223623 10 180 0.0 0.0 0.00 0.00 0.00 89 1019.3
20260508223545 10 180 0.0 0.0 0.00 0.00 0.00 89 1019.3
20260508223522 10 180 0.0 0.0 0.00 0.00 0.00 89 1019.2
20260508223423 10 180 0.0 0.0 0.00 0.00 0.00 89 1019.5
20260508223322 10 179 0.0 0.0 0.00 0.00 0.00 89 1019.3
20260508223223 10 179 0.0 0.0 0.00 0.00 0.00 89 1019.2
20260508223123 10 179 0.0 0.0 0.00 0.00 0.00 89 1019.2
20260508223043 10 179 0.0 0.0 0.00 0.00 0.00 89 1019.2
20260508223022 10 179 0.0 0.0 0.00 0.00 0.00 89 1019.3
20260508222959 10 178 0.0 0.0 0.00 0.00 0.00 89 1019.2
20260508222943 10 178 0.0 0.0 0.00 0.00 0.00 89 1019.3
20260508222709 10 181 0.0 0.0 0.00 0.00 0.00 88 1019.5
20260508222659 10 177 0.0 0.0 0.00 0.00 0.00 88 1019.2
20260508222644 10 176 0.0 0.0 0.00 0.00 0.00 88 1019.2
20260508222636 10 176 0.0 0.0 0.00 0.00 0.00 88 1019.3
20260508222620 10 176 0.0 0.0 0.00 0.00 0.00 88 1019.5
20260508222604 10 175 0.0 0.0 0.00 0.00 0.00 88 1019.5
20260508222328 10 161 0.0 0.0 0.00 0.00 0.00 88 1019.5
20260508222059 10 181 0.0 0.0 0.00 0.00 0.00 89 1019.4
20260508222044 10 182 0.0 0.0 0.00 0.00 0.00 89 1019.3
20260508221724 10 181 0.0 0.0 0.00 0.00 0.00 89 1019.5
20260508221622 10 181 0.0 0.0 0.00 0.00 0.00 89 1019.2
20260508221544 10 181 0.0 0.0 0.00 0.00 0.00 89 1019.2
20260508221523 10 181 0.0 0.0 0.00 0.00 0.00 89 1019.3
20260508221423 10 180 0.0 0.0 0.00 0.00 0.00 89 1019.3
20260508221323 10 179 0.0 0.0 0.00 0.00 0.00 89 1019.1
20260508221258 10 179 0.0 0.0 0.00 0.00 0.00 89 1019.2
20260508221243 10 179 0.0 0.0 0.00 0.00 0.00 89 1019.1
20260508221227 10 179 0.0 0.0 0.00 0.00 0.00 89 1019.1
20260508221219 10 179 0.0 0.0 0.00 0.00 0.00 89 1019.2
20260508220943 10 177 0.0 0.0 0.00 0.00 0.00 89 1019.1
20260508220623 10 176 0.0 1.6 0.00 0.00 0.00 89 1019.2
20260508220543 10 176 0.0 1.6 0.00 0.00 0.00 89 1019.2
20260508220523 10 174 0.0 1.6 0.00 0.00 0.00 89 1019.1
20260508220424 10 177 0.0 1.6 0.00 0.00 0.00 89 1019.0
20260508220355 10 174 0.0 1.6 0.00 0.00 0.00 89 1019.2
20260508220348 10 176 0.0 1.6 0.00 0.00 0.00 89 1019.1
20260508220332 10 173 0.0 1.6 0.00 0.00 0.00 89 1019.2
20260508220317 10 174 0.0 1.6 0.00 0.00 0.00 89 1019.2
20260508220024 10 174 0.0 1.6 0.00 0.00 0.00 89 1019.2
20260508215924 10 168 0.0 1.6 0.00 0.00 0.84 89 1019.2
20260508215823 10 144 0.0 0.0 0.00 0.00 0.84 89 1019.1
20260508215723 10 178 0.0 0.0 0.00 0.00 0.84 89 1019.3
20260508215623 10 178 0.0 0.0 0.00 0.00 0.84 89 1019.1
20260508215524 10 178 0.0 0.0 0.00 0.00 0.84 89 1019.1
20260508215458 10 179 0.0 0.0 0.00 0.00 0.84 89 1019.1
20260508215443 10 178 0.0 0.0 0.00 0.00 0.84 89 1019.2
20260508215206 10 179 0.0 0.0 0.00 0.00 0.84 89 1019.1
20260508215142 10 179 0.0 0.0 0.00 0.00 0.84 89 1019.1
20260508214858 10 179 0.0 0.0 0.00 0.00 0.84 89 1019.2
20260508214843 10 179 0.0 0.0 0.00 0.00 0.84 89 1019.2
20260508214544 10 178 0.0 0.0 0.00 0.00 0.84 88 1019.0
20260508214523 10 178 0.0 0.0 0.00 0.00 0.84 88 1018.9
20260508214451 10 179 0.0 0.0 0.00 0.00 0.84 88 1018.9
20260508214436 10 178 0.0 0.0 0.00 0.00 0.84 88 1018.9
20260508214419 10 179 0.0 0.0 0.00 0.00 0.84 88 1019.0
20260508214403 10 179 0.0 0.0 0.00 0.00 0.84 88 1019.1
20260508214339 10 179 0.0 0.0 0.00 0.00 0.84 88 1019.1
20260508214104 10 178 0.0 0.0 0.00 0.00 0.84 87 1019.1
20260508213523 10 177 0.0 0.0 0.00 0.00 0.84 87 1018.9
20260508213452 10 177 0.0 0.0 0.00 0.00 0.84 87 1019.1
20260508213435 10 176 0.0 0.0 0.00 0.00 0.84 87 1019.0
20260508213418 10 176 0.0 0.0 0.00 0.00 0.84 87 1019.0
20260508213403 10 176 0.0 0.0 0.00 0.00 0.84 87 1019.1
20260508213338 10 175 0.0 0.0 0.00 0.00 0.84 87 1019.1
20260508212843 10 176 0.0 1.6 0.00 0.00 0.84 87 1019.2
20260508212545 10 174 0.0 1.6 0.00 0.00 0.84 87 1019.2
20260508212523 10 172 0.0 1.6 0.00 0.00 0.84 87 1019.0
20260508212423 10 160 0.0 1.6 0.00 0.00 0.84 87 1019.0
20260508212323 10 179 0.0 1.6 0.00 0.00 0.84 86 1019.0
20260508212224 10 174 0.0 3.2 0.00 0.00 0.84 86 1019.2
20260508212141 10 164 0.0 3.2 0.00 0.00 0.84 86 1019.0
20260508212135 10 171 0.0 3.2 0.00 0.00 0.84 86 1019.0
20260508212118 10 169 0.0 3.2 0.00 0.00 0.84 86 1019.0
20260508212110 10 168 0.0 3.2 0.00 0.00 0.84 86 1019.0
20260508212055 10 155 0.0 3.2 0.00 0.00 0.84 86 1019.1
20260508211818 10 169 0.0 3.2 0.00 0.00 0.84 86 1019.1
20260508211802 10 167 0.0 3.2 0.00 0.00 0.84 86 1019.0
20260508211523 10 159 0.0 3.2 0.00 0.00 0.84 86 1019.2
20260508211423 10 134 0.0 3.2 0.00 0.00 0.84 86 1018.9
20260508211323 10 134 0.0 3.2 0.00 0.00 0.84 86 1018.9
20260508211223 10 63 0.0 3.2 0.00 0.00 0.84 86 1019.0
20260508211123 10 166 0.0 1.6 0.00 0.00 0.84 86 1019.1
20260508211107 10 166 0.0 1.6 0.00 0.00 0.84 86 1019.1
20260508211059 10 167 0.0 1.6 0.00 0.00 0.84 86 1019.0
20260508211043 10 155 0.0 1.6 0.00 0.00 0.84 86 1019.1
20260508210725 10 176 0.0 1.6 0.00 0.00 0.84 86 1018.9
20260508210623 10 174 0.0 1.6 0.00 0.00 0.84 86 1018.9
20260508210607 10 174 0.0 1.6 0.00 0.00 0.84 86 1018.9
20260508210559 10 175 0.0 1.6 0.00 0.00 0.84 86 1019.2
20260508210543 10 174 0.0 1.6 0.00 0.00 0.84 86 1019.0
20260508210223 10 161 0.0 1.6 0.00 0.00 0.84 86 1019.1
20260508210158 10 173 0.0 1.6 0.00 0.00 0.84 86 1018.9
20260508210142 10 176 0.0 1.6 0.00 0.00 0.84 86 1018.9
20260508210134 10 177 0.0 1.6 0.00 0.00 0.84 86 1018.9
20260508210117 10 175 0.0 1.6 0.00 0.00 0.84 86 1019.2
20260508210046 10 172 0.0 1.6 0.00 0.00 0.84 85 1019.1
20260508205811 10 160 0.0 6.4 0.00 0.00 0.84 85 1019.0
20260508205803 10 155 0.0 6.4 0.00 0.00 0.84 85 1019.0
20260508205748 10 63 1.6 6.4 0.00 0.00 0.84 85 1018.8
20260508205309 10 152 0.0 9.7 0.00 0.00 0.84 86 1018.9
20260508205306 10 172 0.0 9.7 0.00 0.00 0.84 85 1019.0
20260508205256 10 139 0.0 6.4 0.00 0.00 0.84 85 1018.9
20260508205240 10 177 0.0 6.4 0.00 0.00 0.84 86 1019.0
20260508205223 10 176 0.0 6.4 0.00 0.00 0.84 85 1019.0
20260508205215 10 168 0.0 6.4 0.00 0.00 0.84 85 1019.0
20260508204938 10 162 0.0 6.4 0.00 0.00 0.84 85 1018.8
20260508204921 10 87 0.0 6.4 0.00 0.00 0.84 85 1018.9
20260508204906 10 40 4.8 4.8 0.00 0.00 0.84 85 1019.1
20260508204852 10 57 1.6 3.2 0.00 0.00 0.84 85 1019.1
20260508204844 10 177 0.0 1.6 0.00 0.00 0.84 86 1019.0
20260508204347 10 172 0.0 1.6 0.00 0.00 0.84 86 1018.9
20260508204332 10 166 0.0 1.6 0.00 0.00 0.84 86 1018.8
20260508204315 10 159 0.0 1.6 0.00 0.00 0.84 86 1018.8
20260508204047 10 164 0.0 1.6 0.00 0.00 0.84 86 1019.0
20260508204031 10 111 0.0 4.8 0.00 0.00 0.84 86 1018.5
20260508204016 10 182 0.0 4.8 0.00 0.00 0.84 86 1018.9
20260508204000 10 179 0.0 4.8 0.00 0.00 0.84 86 1019.0
20260508203946 10 178 0.0 4.8 0.00 0.00 0.84 86 1019.0
20260508203938 10 177 0.0 9.7 0.00 0.00 0.84 86 1019.0
20260508203703 10 168 0.0 9.7 0.00 0.00 0.84 86 1018.9
20260508203424 10 146 0.0 9.7 0.00 0.00 0.84 86 1019.0
20260508203156 10 163 0.0 9.7 0.00 0.00 0.84 85 1018.8
20260508202932 10 101 0.0 9.7 0.00 0.00 0.84 85 1018.8
20260508202916 10 52 0.0 9.7 0.00 0.00 0.84 85 1018.8
20260508202900 10 110 0.0 9.7 0.00 0.00 0.84 85 1018.8
20260508202844 10 117 0.0 9.7 0.00 0.00 0.84 86 1018.9
20260508202617 10 47 1.6 9.7 0.00 0.00 0.84 86 1018.8
20260508202600 10 55 1.6 9.7 0.00 0.00 0.84 86 1018.7
20260508202336 10 95 0.0 9.7 0.00 0.00 0.84 86 1018.8
20260508202320 10 59 1.6 9.7 0.00 0.00 0.84 86 1018.8
20260508202307 10 151 0.0 9.7 0.00 0.00 0.84 86 1018.9
20260508202023 10 55 1.6 9.7 0.00 0.00 0.84 86 1018.9
20260508201923 10 141 0.0 9.7 0.00 0.00 0.84 86 1018.8
20260508201823 11 38 1.6 4.8 0.00 0.00 0.84 86 1018.5
20260508201723 11 170 0.0 3.2 0.00 0.00 0.84 87 1018.8
20260508201623 11 164 0.0 3.2 0.00 0.00 0.84 87 1018.9
20260508201544 11 163 0.0 3.2 0.00 0.00 0.84 87 1018.9
20260508201523 11 164 0.0 3.2 0.00 0.00 0.84 87 1018.9
20260508201459 11 167 0.0 3.2 0.00 0.00 0.84 86 1018.8
20260508201443 11 168 0.0 3.2 0.00 0.00 0.84 86 1018.9
20260508201125 11 39 3.2 3.2 0.00 0.00 0.84 86 1018.7
20260508201044 11 174 0.0 3.2 0.00 0.00 0.84 86 1018.7
20260508201023 11 172 0.0 3.2 0.00 0.00 0.84 86 1018.7
20260508200924 11 169 0.0 3.2 0.00 0.00 0.84 86 1018.8
20260508200839 11 148 0.0 3.2 0.00 0.00 0.84 86 1018.8
20260508200834 11 172 0.0 3.2 0.00 0.00 0.84 86 1018.9
20260508200818 11 171 0.0 3.2 0.00 0.00 0.84 86 1018.8
20260508200802 11 163 0.0 3.2 0.00 0.00 0.84 86 1018.8
20260508200523 11 106 0.0 3.2 0.00 0.00 0.84 86 1018.8
20260508200424 11 63 1.6 3.2 0.00 0.00 0.84 86 1018.7
20260508200325 11 147 0.0 0.0 0.00 0.00 0.84 86 1018.5
20260508200308 11 183 0.0 0.0 0.00 0.00 0.84 86 1018.7
20260508200253 11 182 0.0 0.0 0.00 0.00 0.84 86 1018.7
20260508200235 11 182 0.0 0.0 0.00 0.00 0.84 86 1018.7
20260508195923 11 183 0.0 0.0 0.00 0.00 0.84 86 1018.4
20260508195824 11 187 0.0 0.0 0.00 0.00 0.84 86 1018.7
20260508195724 11 180 0.0 0.0 0.00 0.00 0.84 86 1018.7
20260508195623 11 176 0.0 0.0 0.00 0.00 0.84 86 1018.5
20260508195523 11 170 0.0 0.0 0.00 0.00 0.84 86 1018.5
20260508195459 11 184 0.0 1.6 0.00 0.00 0.84 86 1018.5
20260508195443 11 183 0.0 1.6 0.00 0.00 0.84 86 1018.5
20260508195123 11 175 0.0 3.2 0.00 0.00 0.84 86 1018.7
20260508195043 11 172 0.0 3.2 0.00 0.00 0.84 86 1018.4
20260508195023 11 161 0.0 3.2 0.00 0.00 0.84 86 1018.7
20260508194923 11 172 0.0 3.2 0.00 0.00 0.84 86 1018.4
20260508194849 11 80 0.0 4.8 0.00 0.00 0.84 85 1018.5
20260508194842 11 158 0.0 3.2 0.00 0.00 0.84 86 1018.5
20260508194827 11 147 0.0 4.8 0.00 0.00 0.84 85 1018.5
20260508194811 11 127 0.0 4.8 0.00 0.00 0.84 85 1018.3
20260508194757 11 83 0.0 4.8 0.00 0.00 0.84 85 1018.3
20260508194749 11 74 0.0 4.8 0.00 0.00 0.84 85 1018.8
20260508194734 11 166 0.0 4.8 0.00 0.00 0.84 85 1018.4
20260508194717 11 162 0.0 4.8 0.00 0.00 0.84 85 1018.1
20260508194701 11 145 0.0 4.8 0.00 0.00 0.84 85 1018.7
20260508194645 11 108 0.0 4.8 0.00 0.00 0.84 85 1018.5
20260508194416 11 66 1.6 4.8 0.00 0.00 0.84 85 1018.3
20260508194141 11 75 0.0 4.8 0.00 0.00 0.84 85 1018.4
20260508193905 11 72 0.0 4.8 0.00 0.00 0.84 85 1018.4
20260508193851 11 76 0.0 4.8 0.00 0.00 0.84 85 1018.4
20260508193843 11 79 0.0 4.8 0.00 0.00 0.84 85 1018.5
20260508193346 11 101 0.0 4.8 0.00 0.00 0.84 85 1018.8
20260508193329 11 150 0.0 4.8 0.00 0.00 0.84 85 1018.5
20260508193313 11 164 0.0 4.8 0.00 0.00 0.84 85 1018.5
20260508193305 11 159 0.0 4.8 0.00 0.00 0.84 85 1018.4
20260508193027 11 50 0.0 4.8 0.00 0.00 0.84 85 1018.4
20260508193009 11 60 0.0 4.8 0.00 0.00 0.84 85 1018.5
20260508192951 11 64 1.6 4.8 0.00 0.00 0.84 85 1018.4
20260508192936 11 159 0.0 3.2 0.00 0.00 0.84 85 1018.4
20260508192927 11 165 0.0 3.2 0.00 0.00 0.84 85 1018.2
20260508192123 11 171 0.0 3.2 0.00 0.00 0.84 85 1018.3
20260508192043 11 162 0.0 3.2 0.00 0.00 0.84 85 1018.3
20260508192024 11 153 0.0 3.2 0.00 0.00 0.84 85 1018.3
20260508192000 11 165 0.0 3.2 0.00 0.00 0.84 85 1018.4
20260508191944 11 167 0.0 3.2 0.00 0.00 0.84 85 1018.3
20260508191612 11 182 0.0 1.6 0.00 0.00 0.84 85 1018.3
20260508191544 11 182 0.0 1.6 0.00 0.00 0.84 85 1018.3
20260508191511 11 180 0.0 1.6 0.00 0.00 0.84 85 1018.3
20260508191449 11 175 0.0 1.6 0.00 0.00 0.84 85 1018.5
20260508191432 11 182 0.0 1.6 0.00 0.00 0.84 85 1018.2
20260508191112 11 184 0.0 1.6 0.00 0.00 0.84 85 1018.3
20260508191044 11 184 0.0 1.6 0.00 0.00 0.84 85 1018.3
20260508191013 11 182 0.0 1.6 0.00 0.00 0.84 85 1018.3
20260508190911 11 184 0.0 1.6 0.00 0.00 0.84 85 1018.4
20260508190851 11 160 0.0 1.6 0.00 0.00 0.84 85 1018.7
20260508190835 11 181 0.0 1.6 0.00 0.00 0.84 85 1018.2
20260508190557 11 181 0.0 0.0 0.00 0.00 0.84 85 1018.5
20260508190512 11 182 0.0 0.0 0.00 0.00 0.84 85 1018.2
20260508190412 11 182 0.0 0.0 0.00 0.00 0.84 85 1018.3
20260508190312 11 183 0.0 0.0 0.00 0.00 0.84 85 1018.3
20260508190211 11 182 0.0 0.0 0.00 0.00 0.84 85 1018.3
20260508190114 11 182 0.0 0.0 0.00 0.00 0.84 85 1018.2
20260508190058 11 182 0.0 0.0 0.00 0.00 0.84 85 1018.2
20260508190011 11 182 0.0 0.0 0.00 0.00 0.84 85 1018.2
20260508185911 11 182 0.0 0.0 0.00 0.00 0.84 85 1018.5
20260508185859 11 182 0.0 0.0 0.00 0.00 0.84 85 1018.3
20260508185849 11 182 0.0 0.0 0.00 0.00 0.84 85 1018.3
20260508185832 11 182 0.0 0.0 0.00 0.00 0.84 85 1018.5
20260508185815 11 182 0.0 0.0 0.00 0.00 0.84 85 1018.3
20260508185547 11 181 0.0 0.0 0.00 0.00 0.84 85 1018.5
20260508185531 11 182 0.0 0.0 0.00 0.00 0.84 85 1018.4
20260508185212 11 182 0.0 0.0 0.00 0.00 0.84 85 1018.3
20260508185112 11 182 0.0 0.0 0.00 0.00 0.84 85 1018.3
20260508185033 11 182 0.0 0.0 0.00 0.00 0.84 85 1018.3
20260508185011 11 182 0.0 0.0 0.00 0.00 0.84 85 1018.2
20260508184912 11 182 0.0 0.0 0.00 0.00 0.84 85 1018.3
20260508184832 11 181 0.0 0.0 0.00 0.00 0.84 85 1018.2
20260508184825 11 181 0.0 0.0 0.00 0.00 0.84 85 1018.1
20260508184808 11 182 0.0 0.0 0.00 0.00 0.84 85 1018.2
20260508184750 11 181 0.0 0.0 0.00 0.00 0.84 85 1018.2
20260508184513 11 181 0.0 0.0 0.00 0.00 0.84 85 1018.1
20260508184426 11 181 0.0 0.0 0.00 0.00 0.84 85 1018.2
20260508184410 11 181 0.0 0.0 0.00 0.00 0.84 85 1018.2
20260508184355 11 181 0.0 0.0 0.00 0.00 0.84 85 1018.2
20260508184118 11 181 0.0 0.0 0.00 0.00 0.84 85 1018.1
20260508184110 11 181 0.0 0.0 0.00 0.00 0.84 85 1018.2
20260508184055 11 181 0.0 0.0 0.00 0.00 0.84 84 1018.2
20260508183820 11 181 0.0 0.0 0.00 0.00 0.84 84 1018.2
20260508183531 11 181 0.0 0.0 0.00 0.00 0.84 84 1018.2
20260508183501 11 181 0.0 0.0 0.00 0.00 0.84 84 1018.1
20260508183359 11 181 0.0 0.0 0.00 0.00 0.84 84 1018.1
20260508183339 11 181 0.0 0.0 0.00 0.00 0.84 84 1018.1
20260508183324 11 182 0.0 0.0 0.00 0.00 0.84 84 1017.9
20260508183251 11 181 0.0 0.0 0.00 0.00 0.84 84 1018.2
20260508183242 11 181 0.0 0.0 0.00 0.00 0.84 84 1018.1
20260508182659 11 174 0.0 0.0 0.00 0.00 0.84 84 1018.3
20260508182548 11 182 0.0 0.0 0.00 0.00 0.84 84 1018.0
20260508182538 12 178 0.0 0.0 0.00 0.00 0.84 83 1017.9
20260508182532 11 183 0.0 0.0 0.00 0.00 0.84 84 1018.0
20260508182526 12 161 0.0 0.0 0.00 0.00 0.84 84 1017.8
20260508182516 11 182 0.0 0.0 0.00 0.00 0.84 84 1018.1
20260508182501 11 179 0.0 0.0 0.00 0.00 0.84 84 1018.0
20260508182445 11 177 0.0 0.0 0.00 0.00 0.84 84 1017.9
20260508182429 12 180 0.0 0.0 0.00 0.00 0.84 84 1017.8
20260508182155 12 187 0.0 0.0 0.00 0.00 0.84 84 1017.9
20260508182144 11 184 0.0 0.0 0.00 0.00 0.84 84 1018.1
20260508182127 11 181 0.0 0.0 0.00 0.00 0.84 84 1017.9
20260508182112 11 177 0.0 0.0 0.00 0.00 0.84 83 1017.9
20260508182056 11 180 0.0 0.0 0.00 0.00 0.84 83 1017.8
20260508182039 11 178 0.0 0.0 0.00 0.00 0.84 83 1017.9
20260508181812 12 169 0.0 0.0 0.00 0.00 0.84 84 1017.8
20260508181755 12 179 0.0 0.0 0.00 0.00 0.84 84 1018.0
20260508181740 12 181 0.0 0.0 0.00 0.00 0.84 84 1017.9
20260508181724 12 179 0.0 0.0 0.00 0.00 0.84 84 1017.8
20260508181708 12 178 0.0 0.0 0.00 0.00 0.84 84 1017.8
20260508181440 12 165 0.0 0.0 0.00 0.00 0.84 84 1017.8
20260508181424 12 181 0.0 0.0 0.00 0.00 0.84 83 1017.9
20260508181408 12 182 0.0 0.0 0.00 0.00 0.84 84 1017.6
20260508181353 12 181 0.0 0.0 0.00 0.00 0.84 84 1017.9
20260508181121 12 185 0.0 0.0 0.00 0.00 0.84 84 1017.9
20260508181111 12 182 0.0 0.0 0.00 0.00 0.84 83 1017.8
20260508180616 12 163 0.0 0.0 0.00 0.00 0.84 84 1017.9
20260508180342 12 183 0.0 0.0 0.00 0.00 0.84 84 1017.8
20260508180111 12 185 0.0 0.0 0.00 0.00 0.84 84 1018.1
20260508180055 12 184 0.0 0.0 0.00 0.00 0.84 84 1017.9
20260508175808 12 179 0.0 0.0 0.00 0.00 0.84 84 1017.7
20260508175757 12 167 0.0 0.0 0.00 0.00 0.84 84 1017.8
20260508175742 12 166 0.0 0.0 0.00 0.00 0.84 84 1017.7
20260508175505 12 185 0.0 0.0 0.00 0.00 0.84 84 1017.8
20260508175435 12 184 0.0 0.0 0.00 0.00 0.84 84 1017.4
20260508174944 12 180 0.0 0.0 0.00 0.00 0.84 84 1017.8
20260508174708 12 184 0.0 0.0 0.00 0.00 0.84 83 1017.6
20260508174655 12 182 0.0 0.0 0.00 0.00 0.84 84 1017.6
20260508174645 12 184 0.0 0.0 0.00 0.00 0.84 83 1017.6
20260508174407 12 182 0.0 0.0 0.00 0.00 0.84 83 1017.6
20260508174123 12 184 0.0 0.0 0.00 0.00 0.84 83 1017.6
20260508174110 12 181 0.0 0.0 0.00 0.00 0.84 83 1017.6
20260508174059 12 182 0.0 0.0 0.00 0.00 0.84 83 1017.4
20260508174043 12 192 0.0 0.0 0.00 0.00 0.84 83 1017.5
20260508173807 12 181 0.0 0.0 0.00 0.00 0.84 83 1017.6
20260508173531 12 182 0.0 0.0 0.00 0.00 0.84 84 1017.7
20260508173447 12 165 0.0 0.0 0.00 0.00 0.84 84 1017.5
20260508173347 12 182 0.0 0.0 0.00 0.00 0.84 84 1017.6
20260508173248 12 177 0.0 0.0 0.00 0.00 0.84 83 1017.4
20260508173225 12 172 0.0 0.0 0.00 0.00 0.84 83 1017.4
20260508173210 12 184 0.0 0.0 0.00 0.00 0.84 83 1017.5
20260508173155 12 183 0.0 0.0 0.00 0.00 0.84 83 1017.5
20260508173145 12 182 0.0 0.0 0.00 0.00 0.84 83 1017.5
20260508172908 12 183 0.0 0.0 0.00 0.00 0.84 83 1017.4
20260508172533 12 182 0.0 0.0 0.00 0.00 0.84 83 1017.4
20260508172523 12 185 0.0 0.0 0.00 0.00 0.84 83 1017.5
20260508172507 12 182 0.0 0.0 0.00 0.00 0.84 83 1017.3
20260508172147 12 184 0.0 0.0 0.00 0.00 0.84 83 1017.4
20260508172047 12 181 0.0 0.0 0.00 0.00 0.84 83 1017.2
20260508172031 12 180 0.0 0.0 0.00 0.00 0.84 83 1017.2
20260508172013 12 181 0.0 0.0 0.00 0.00 0.84 83 1017.3
20260508171958 12 182 0.0 0.0 0.00 0.00 0.84 83 1017.3
20260508171941 12 185 0.0 0.0 0.00 0.00 0.84 83 1017.3
20260508171926 12 185 0.0 0.0 0.00 0.00 0.84 83 1017.5
20260508171857 12 184 0.0 0.0 0.00 0.00 0.84 82 1017.3
20260508171847 12 184 0.0 0.0 0.00 0.00 0.84 82 1017.2
20260508171032 12 184 0.0 0.0 0.00 0.00 0.84 82 1017.5
20260508170947 12 185 0.0 0.0 0.00 0.00 0.84 82 1017.4
20260508170847 12 185 0.0 0.0 0.00 0.00 0.84 82 1017.3
20260508170747 12 185 0.0 0.0 0.00 0.00 0.84 81 1017.3
20260508170647 12 184 0.0 0.0 0.00 0.00 0.84 81 1017.4
20260508170631 12 184 0.0 0.0 0.00 0.00 0.84 81 1017.3
20260508170608 12 180 0.0 0.0 0.00 0.00 0.84 81 1017.2
20260508170558 12 165 0.0 0.0 0.00 0.00 0.84 81 1017.3
20260508170541 12 187 0.0 0.0 0.00 0.00 0.84 81 1017.5
20260508170307 12 175 0.0 0.0 0.00 0.00 0.84 81 1017.5
20260508170251 12 184 0.0 0.0 0.00 0.00 0.84 81 1017.3
20260508165947 12 185 0.0 0.0 0.00 0.00 0.84 81 1017.3
20260508165835 12 185 0.0 0.0 0.00 0.00 0.84 81 1017.4
20260508165736 12 185 0.0 0.0 0.00 0.00 0.84 80 1017.3
20260508165635 12 182 0.0 0.0 0.00 0.00 0.84 80 1017.4
20260508165536 12 184 0.0 0.0 0.00 0.00 0.84 80 1017.1
20260508165435 12 185 0.0 0.0 0.00 0.00 0.84 80 1017.1
20260508165335 12 182 0.0 0.0 0.00 0.00 0.84 80 1017.1
20260508165235 12 182 0.0 0.0 0.00 0.00 0.84 80 1017.5
20260508165135 12 183 0.0 0.0 0.00 0.00 0.84 80 1017.3
20260508165034 12 183 0.0 0.0 0.00 0.00 0.84 80 1017.2
20260508164212 12 179 0.0 0.0 0.00 0.00 0.84 81 1017.2
20260508164112 12 178 0.0 0.0 0.00 0.00 0.84 81 1017.3
20260508164058 12 177 0.0 0.0 0.00 0.00 0.84 81 1017.3
20260508164012 13 181 0.0 0.0 0.00 0.00 0.84 81 1017.4
20260508163911 13 173 0.0 0.0 0.00 0.00 0.84 81 1017.3
20260508163811 13 184 0.0 0.0 0.00 0.00 0.84 82 1017.3
20260508163713 13 184 0.0 0.0 0.00 0.00 0.84 82 1017.1
20260508163612 13 183 0.0 0.0 0.00 0.00 0.84 82 1017.2
20260508163559 13 183 0.0 0.0 0.00 0.00 0.84 82 1017.2
20260508163548 13 184 0.0 0.0 0.00 0.00 0.84 82 1017.5
20260508163533 13 184 0.0 0.0 0.00 0.00 0.84 81 1017.5
20260508163518 13 183 0.0 0.0 0.00 0.00 0.84 81 1017.5
20260508163240 12 182 0.0 0.0 0.00 0.00 0.84 81 1017.2
20260508163229 12 182 0.0 0.0 0.00 0.00 0.84 81 1017.2
20260508162912 12 182 0.0 0.0 0.00 0.00 0.84 81 1017.3
20260508162852 13 181 0.0 0.0 0.00 0.00 0.84 81 1017.3
20260508162844 12 182 0.0 0.0 0.00 0.00 0.84 81 1017.4
20260508162829 12 176 0.0 0.0 0.00 0.00 0.84 80 1017.5
20260508162812 13 181 0.0 0.0 0.00 0.00 0.84 81 1017.3
20260508162512 12 183 0.0 0.0 0.00 0.00 0.84 81 1017.3
20260508162412 12 183 0.0 0.0 0.00 0.00 0.84 81 1017.3
20260508162312 12 184 0.0 0.0 0.00 0.00 0.84 81 1017.4
20260508162213 12 183 0.0 0.0 0.00 0.00 0.84 81 1017.3
20260508162113 12 185 0.0 0.0 0.00 0.00 0.84 81 1017.4
20260508162101 12 185 0.0 0.0 0.00 0.00 0.84 81 1017.4
20260508162049 12 185 0.0 0.0 0.00 0.00 0.84 81 1017.5
20260508162032 12 185 0.0 0.0 0.00 0.00 0.84 81 1017.3
20260508161713 12 185 0.0 0.0 0.00 0.00 0.84 81 1017.4
20260508161655 12 185 0.0 0.0 0.00 0.00 0.84 81 1017.2
20260508161642 12 185 0.0 0.0 0.00 0.00 0.84 81 1017.2
20260508161632 12 185 0.0 0.0 0.00 0.00 0.84 81 1017.4
20260508161312 12 182 0.0 0.0 0.00 0.00 0.84 81 1017.4
20260508161211 12 175 0.0 0.0 0.00 0.00 0.84 81 1017.5
20260508161113 12 179 0.0 0.0 0.00 0.00 0.84 81 1017.3
20260508161057 12 182 0.0 0.0 0.00 0.00 0.84 81 1017.3
20260508161012 12 172 0.0 0.0 0.00 0.00 0.84 81 1017.5
20260508160913 12 182 0.0 0.0 0.00 0.00 0.84 81 1017.4
20260508160812 12 185 0.0 0.0 0.00 0.00 0.84 81 1017.4
20260508160711 12 181 0.0 0.0 0.00 0.00 0.84 81 1017.3
20260508160612 12 186 0.0 0.0 0.00 0.00 0.84 81 1017.3
20260508160556 12 186 0.0 0.0 0.00 0.00 0.84 81 1017.3
20260508160512 12 186 0.0 0.0 0.00 0.00 0.84 81 1017.6
20260508160444 12 184 0.0 0.0 0.00 0.00 0.84 81 1017.5
20260508160429 12 182 0.0 0.0 0.00 0.00 0.84 81 1017.7
20260508160412 12 185 0.0 0.0 0.00 0.00 0.84 81 1017.3
20260508160356 12 185 0.0 0.0 0.00 0.00 0.84 81 1017.4
20260508160345 12 185 0.0 0.0 0.00 0.00 0.84 81 1017.4
20260508160332 12 188 0.0 0.0 0.00 0.00 0.84 81 1017.3
20260508155835 12 184 0.0 0.0 0.00 0.00 0.84 82 1017.3
20260508155603 12 183 0.0 0.0 0.00 0.00 0.84 82 1017.2
20260508155552 12 184 0.0 0.0 0.00 0.00 0.84 82 1017.3
20260508155537 12 185 0.0 0.0 0.00 0.00 0.84 82 1017.4
20260508155212 13 183 0.0 0.0 0.00 0.00 0.84 83 1017.3
20260508155111 12 182 0.0 0.0 0.00 0.00 0.84 83 1017.3
20260508155057 12 181 0.0 0.0 0.00 0.00 0.84 83 1017.3
20260508155012 12 183 0.0 0.0 0.00 0.00 0.84 83 1017.4
20260508154901 12 177 0.0 0.0 0.00 0.00 0.84 82 1017.3
20260508154843 12 165 0.0 0.0 0.00 0.00 0.84 82 1017.4
20260508154826 12 184 0.0 0.0 0.00 0.00 0.84 81 1017.5
20260508154600 12 181 0.0 0.0 0.00 0.00 0.84 81 1017.1
20260508154527 13 183 0.0 0.0 0.00 0.00 0.84 80 1017.5
20260508154523 13 169 0.0 0.0 0.00 0.00 0.84 80 1017.3
20260508154518 13 182 0.0 0.0 0.00 0.00 0.84 80 1017.3
20260508154512 12 182 0.0 0.0 0.00 0.00 0.84 81 1017.6
20260508154456 12 169 0.0 0.0 0.00 0.00 0.84 81 1017.5
20260508154440 12 187 0.0 0.0 0.00 0.00 0.84 81 1017.3
20260508154424 12 185 0.0 0.0 0.00 0.00 0.84 81 1017.3
20260508154403 12 185 0.0 0.0 0.00 0.00 0.84 81 1017.4
20260508154346 13 182 0.0 0.0 0.00 0.00 0.84 81 1017.4
20260508154110 12 180 0.0 0.0 0.00 0.00 0.84 81 1017.5
20260508154056 13 180 0.0 0.0 0.00 0.00 0.84 81 1017.3
20260508154039 13 169 0.0 0.0 0.00 0.00 0.84 80 1017.3
20260508153813 13 167 0.0 0.0 0.00 0.00 0.84 81 1017.5
20260508153757 13 167 0.0 0.0 0.00 0.00 0.84 80 1017.3
20260508153741 13 185 0.0 0.0 0.00 0.00 0.84 81 1017.4
20260508153252 13 182 0.0 0.0 0.00 0.00 0.84 80 1017.3
20260508153234 13 183 0.0 0.0 0.00 0.00 0.84 80 1017.3
20260508153218 13 179 0.0 0.0 0.00 0.00 0.84 80 1017.5
20260508152942 13 190 0.0 0.0 0.00 0.00 0.84 80 1017.6
20260508152715 13 190 0.0 0.0 0.00 0.00 0.84 80 1017.3
20260508152700 13 190 0.0 0.0 0.00 0.00 0.84 80 1017.2
20260508152644 13 191 0.0 0.0 0.00 0.00 0.84 80 1017.5
20260508152408 13 183 0.0 0.0 0.00 0.00 0.84 80 1017.4
20260508152351 13 182 0.0 0.0 0.00 0.00 0.84 80 1017.3
20260508152123 13 185 0.0 0.0 0.00 0.00 0.84 79 1017.4
20260508152106 13 188 0.0 0.0 0.00 0.00 0.84 79 1017.3
20260508151842 13 187 0.0 0.0 0.00 0.00 0.84 80 1017.5
20260508151826 13 186 0.0 0.0 0.00 0.00 0.84 80 1017.5
20260508151809 13 183 0.0 0.0 0.00 0.00 0.84 80 1017.5
20260508151500 13 189 0.0 0.0 0.00 0.00 0.84 80 1017.5
20260508151402 13 188 0.0 0.0 0.00 0.00 0.84 80 1017.4
20260508151351 13 187 0.0 0.0 0.00 0.00 0.84 81 1017.6
20260508151341 13 190 0.0 0.0 0.00 0.00 0.84 81 1017.3
20260508151326 13 189 0.0 0.0 0.00 0.00 0.84 81 1017.4
20260508151309 13 187 0.0 0.0 0.00 0.00 0.84 81 1017.6
20260508151001 13 186 0.0 0.0 0.00 0.00 0.84 81 1017.4
20260508150937 12 182 0.0 0.0 0.00 0.00 0.84 81 1017.4
20260508150920 12 184 0.0 0.0 0.00 0.00 0.84 81 1017.5
20260508150601 13 171 0.0 0.0 0.00 0.00 0.84 81 1017.3
20260508150500 13 180 0.0 0.0 0.00 0.00 0.84 81 1017.3
20260508150419 13 185 0.0 0.0 0.00 0.00 0.84 81 1017.2
20260508150412 13 179 0.0 0.0 0.00 0.00 0.84 81 1017.4
20260508150356 13 194 0.0 0.0 0.00 0.00 0.84 82 1017.5
20260508150340 13 198 0.0 0.0 0.00 0.00 0.84 81 1017.4
20260508150322 13 185 0.0 0.0 0.00 0.00 0.84 81 1017.2
20260508150001 13 181 0.0 1.6 0.00 0.00 0.84 82 1017.4
20260508145900 13 183 0.0 1.6 0.00 0.00 0.84 81 1017.2
20260508145759 13 176 0.0 1.6 0.00 0.00 0.84 81 1017.3
20260508145701 13 182 0.0 1.6 0.00 0.00 0.84 81 1017.2
20260508145600 13 176 0.0 1.6 0.00 0.00 0.84 81 1017.3
20260508145500 13 161 0.0 1.6 0.00 0.00 0.84 81 1017.3
20260508145401 13 173 0.0 1.6 0.00 0.00 0.84 81 1017.4
20260508145306 13 191 0.0 1.6 0.00 0.00 0.84 81 1017.4
20260508145246 13 162 0.0 1.6 0.00 0.00 0.84 81 1017.3
20260508145223 13 154 0.0 1.6 0.00 0.00 0.84 81 1017.3
20260508144901 13 184 0.0 0.0 0.00 0.00 0.84 81 1017.4
20260508144801 13 188 0.0 0.0 0.00 0.00 0.84 81 1017.4
20260508144745 13 190 0.0 0.0 0.00 0.00 0.84 82 1017.3
20260508144722 13 197 0.0 0.0 0.00 0.00 0.84 82 1017.3
20260508144401 13 192 0.0 3.2 0.00 0.00 0.84 82 1017.6
20260508144339 13 189 0.0 3.2 0.00 0.00 0.84 82 1017.2
20260508144323 13 190 0.0 3.2 0.00 0.00 0.84 82 1017.5
20260508144300 13 191 0.0 3.2 0.00 0.00 0.84 82 1017.4
20260508144243 13 190 0.0 3.2 0.00 0.00 0.84 82 1017.4
20260508143700 13 174 0.0 3.2 0.00 0.00 0.84 82 1017.3
20260508143638 13 178 0.0 3.2 0.00 0.00 0.84 82 1017.1
20260508143621 13 185 0.0 3.2 0.00 0.00 0.84 82 1017.2
20260508143300 13 183 0.0 4.8 0.00 0.00 0.84 82 1017.3
20260508143223 13 177 0.0 4.8 0.00 0.00 0.84 81 1017.3
20260508143201 13 175 0.0 4.8 0.00 0.00 0.84 82 1017.1
20260508143143 13 156 0.0 4.8 0.00 0.00 0.84 81 1017.2
20260508143128 13 183 0.0 4.8 0.00 0.00 0.84 81 1017.4
20260508143112 13 183 0.0 4.8 0.00 0.00 0.84 81 1017.4
20260508143057 13 148 0.0 4.8 0.00 0.00 0.84 80 1017.4
20260508142830 13 182 0.0 4.8 0.00 0.00 0.84 81 1017.4
20260508142815 13 178 0.0 4.8 0.00 0.00 0.84 81 1017.4
20260508142759 13 162 0.0 4.8 0.00 0.00 0.84 81 1017.5
20260508142743 13 131 0.0 0.0 0.00 0.00 0.84 80 1017.3
20260508142256 13 162 0.0 0.0 0.00 0.00 0.84 82 1017.5
20260508142239 13 189 0.0 0.0 0.00 0.00 0.84 84 1017.4
20260508142223 13 184 0.0 0.0 0.00 0.00 0.84 84 1017.3
20260508141948 12 182 0.0 0.0 0.00 0.00 0.84 85 1017.4
20260508141721 12 190 0.0 0.0 0.00 0.00 0.84 84 1017.4
20260508141437 12 154 0.0 0.0 0.00 0.00 0.84 85 1017.4
20260508141421 12 174 0.0 0.0 0.00 0.00 0.84 85 1017.3
20260508141138 12 178 0.0 0.0 0.00 0.00 0.84 85 1017.3
20260508141121 12 165 0.0 0.0 0.00 0.00 0.84 85 1017.6
20260508140806 12 180 0.0 0.0 0.00 0.00 0.84 86 1017.5
20260508140701 12 185 0.0 0.0 0.00 0.00 0.84 86 1017.4
20260508140600 12 180 0.0 0.0 0.00 0.00 0.84 86 1017.5
20260508140537 12 174 0.0 0.0 0.00 0.00 0.84 86 1017.5
20260508140522 12 119 0.0 0.0 0.00 0.00 0.84 85 1017.4
20260508140213 12 190 0.0 4.8 0.00 0.00 0.84 86 1017.3
20260508140151 12 143 0.0 4.8 0.00 0.00 0.84 86 1017.3
20260508140119 12 181 0.0 4.8 0.00 0.00 0.84 86 1017.2
20260508135801 12 175 0.0 4.8 0.00 0.00 0.84 86 1017.4
20260508135700 12 181 0.0 4.8 0.00 0.00 0.84 86 1017.4
20260508135600 12 174 0.0 4.8 0.00 0.00 0.84 86 1017.5
20260508135500 12 176 0.0 4.8 0.00 0.00 0.84 86 1017.5
20260508135401 12 192 0.0 4.8 0.00 0.00 0.84 86 1017.4
20260508135305 12 235 1.6 4.8 0.00 0.00 0.84 86 1017.3
20260508135202 12 190 0.0 1.6 0.00 0.00 0.84 86 1017.5
20260508135125 12 188 0.0 1.6 0.00 0.00 0.84 86 1017.5
20260508135108 12 185 0.0 1.6 0.00 0.00 0.84 85 1017.6
20260508135051 12 150 0.0 1.6 0.00 0.00 0.84 85 1017.5
20260508135036 13 198 0.0 1.6 0.00 0.00 0.84 85 1017.4
20260508134549 12 185 0.0 1.6 0.00 0.00 0.84 86 1017.4
20260508134448 12 152 0.0 1.6 0.00 0.00 0.84 86 1017.5
20260508134425 12 166 0.0 1.6 0.00 0.00 0.84 86 1017.2
20260508134408 12 162 0.0 1.6 0.00 0.00 0.84 85 1017.7
20260508134048 12 169 0.0 1.6 0.00 0.00 0.84 86 1017.4
20260508133948 12 111 0.0 0.0 0.00 0.00 0.84 86 1017.5
20260508133849 12 185 0.0 1.6 0.00 0.00 0.84 86 1017.3
20260508133749 12 187 0.0 1.6 0.00 0.00 0.84 86 1017.2
20260508133648 12 173 0.0 1.6 0.00 0.00 0.84 86 1017.4
20260508133620 12 185 0.0 1.6 0.00 0.00 0.84 86 1017.4
20260508133603 12 181 0.0 1.6 0.00 0.00 0.84 87 1017.3
20260508133547 12 157 0.0 1.6 0.00 0.00 0.84 87 1017.3
20260508133530 12 182 0.0 1.6 0.00 0.00 0.84 87 1017.4
20260508133514 12 183 0.0 1.6 0.00 0.00 0.84 87 1017.4
20260508133248 12 177 0.0 1.6 0.00 0.00 0.84 87 1017.4
20260508133230 12 97 0.0 1.6 0.00 0.00 0.84 87 1017.4
20260508132649 12 184 0.0 0.0 0.00 0.00 0.84 87 1017.3
20260508132625 12 186 0.0 1.6 0.00 0.00 0.84 88 1017.4
20260508132609 12 184 0.0 1.6 0.00 0.00 0.84 88 1017.5
20260508132332 12 169 0.0 1.6 0.00 0.00 0.84 87 1017.4
20260508132316 12 178 0.0 1.6 0.00 0.00 0.84 87 1017.3
20260508132049 12 178 0.0 1.6 0.00 0.00 0.84 87 1017.8
20260508131949 12 183 0.0 1.6 0.00 0.00 0.84 87 1017.2
20260508131925 12 183 0.0 1.6 0.00 0.00 0.84 87 1017.6
20260508131909 12 178 0.0 1.6 0.00 0.00 0.84 86 1017.6
20260508131613 12 150 0.0 0.0 0.00 0.00 0.84 85 1017.3
20260508131556 12 177 0.0 0.0 0.00 0.00 0.84 85 1017.5
20260508131236 12 186 0.0 0.0 0.00 0.00 0.84 85 1017.4
20260508131136 12 184 0.0 0.0 0.00 0.00 0.84 85 1017.7
20260508131120 12 161 0.0 0.0 0.00 0.00 0.84 85 1017.6
20260508131112 12 182 0.0 0.0 0.00 0.00 0.84 85 1017.6
20260508131056 12 183 0.0 0.0 0.00 0.00 0.84 85 1017.6
20260508130736 12 184 0.0 0.0 0.00 0.00 0.84 86 1017.6
20260508130636 12 184 0.0 0.0 0.00 0.00 0.84 86 1017.6
20260508130544 12 186 0.0 0.0 0.00 0.00 0.84 86 1017.7
20260508130537 12 188 0.0 0.0 0.00 0.00 0.84 86 1017.7
20260508130437 12 191 0.0 0.0 0.00 0.00 0.84 86 1017.6
20260508130337 12 192 0.0 0.0 0.00 0.00 0.84 86 1017.7
20260508130322 12 183 0.0 1.6 0.00 0.00 0.84 87 1017.4
20260508130312 12 218 0.0 0.0 0.00 0.00 0.84 86 1017.5
20260508130257 12 184 0.0 0.0 0.00 0.00 0.84 87 1017.6
20260508130240 12 183 0.0 0.0 0.00 0.00 0.84 87 1017.6
20260508130232 12 181 0.0 0.0 0.00 0.00 0.84 87 1017.6
20260508130216 12 183 0.0 0.0 0.00 0.00 0.84 87 1017.5
20260508125941 12 186 0.0 1.6 0.00 0.00 0.84 87 1017.3
20260508125925 12 186 0.0 1.6 0.00 0.00 0.84 87 1017.6
20260508125658 12 183 0.0 1.6 0.00 0.00 0.84 87 1017.4
20260508125336 12 190 0.0 1.6 0.00 0.00 0.84 88 1017.7
20260508125135 12 190 0.0 3.2 0.00 0.00 0.84 88 1017.6
20260508125045 12 190 0.0 3.2 0.00 0.00 0.84 88 1017.6
20260508125036 12 189 0.0 3.2 0.00 0.00 0.84 88 1017.6
20260508125020 12 176 0.0 3.2 0.00 0.00 0.84 89 1017.6
20260508125011 12 180 0.0 3.2 0.00 0.00 0.84 88 1017.3
20260508124955 12 185 0.0 3.2 0.00 0.00 0.84 89 1017.5
20260508124939 12 189 0.0 3.2 0.00 0.00 0.84 89 1017.4
20260508124924 12 172 0.0 3.2 0.00 0.00 0.84 89 1017.7
20260508124657 12 167 0.0 3.2 0.00 0.00 0.84 89 1017.6
20260508124337 12 179 0.0 3.2 0.00 0.00 0.84 89 1017.7
20260508124236 12 167 0.0 3.2 0.00 0.00 0.84 89 1017.5
20260508124136 12 180 0.0 0.0 0.00 0.00 0.84 89 1017.5
20260508124044 12 184 0.0 0.0 0.00 0.00 0.84 89 1017.6
20260508124036 12 184 0.0 0.0 0.00 0.00 0.84 89 1017.6
20260508123937 12 167 0.0 0.0 0.00 0.00 0.84 89 1017.6
20260508123836 12 188 0.0 0.0 0.00 0.00 0.84 89 1017.7
20260508123735 12 151 0.0 0.0 0.00 0.00 0.84 89 1017.6
20260508123636 12 182 0.0 0.0 0.00 0.00 0.84 89 1017.7
20260508123611 12 183 0.0 1.6 0.00 0.00 0.84 89 1017.4
20260508123601 12 163 0.0 1.6 0.00 0.00 0.84 89 1017.7
20260508123555 12 163 0.0 1.6 0.00 0.00 0.84 88 1017.7
20260508123539 12 182 0.0 1.6 0.00 0.00 0.84 89 1017.6
20260508123524 12 180 0.0 1.6 0.00 0.00 0.84 89 1017.3
20260508123508 12 190 0.0 1.6 0.00 0.00 0.84 89 1017.4
20260508123451 12 186 0.0 1.6 0.00 0.00 0.84 89 1017.8
20260508123222 12 182 0.0 1.6 0.00 0.00 0.84 89 1017.4
20260508123207 12 184 0.0 1.6 0.00 0.00 0.84 89 1017.7
20260508123151 12 183 0.0 1.6 0.00 0.00 0.84 89 1017.5
20260508123134 12 150 0.0 1.6 0.00 0.00 0.84 89 1017.5
20260508122858 12 180 0.0 0.0 0.00 0.00 0.84 89 1017.6
20260508122852 12 177 0.0 0.0 0.00 0.00 0.84 89 1017.6
20260508122615 12 181 0.0 0.0 0.00 0.00 0.84 88 1017.5
20260508122600 12 177 0.0 0.0 0.00 0.00 0.84 88 1017.5
20260508122544 12 187 0.0 0.0 0.00 0.00 0.84 88 1017.1
20260508122528 12 185 0.0 0.0 0.00 0.00 0.84 88 1017.5
20260508122040 12 189 0.0 0.0 0.00 0.00 0.84 88 1017.7
20260508121803 12 188 0.0 3.2 0.00 0.00 0.84 88 1017.5
20260508121746 12 190 0.0 3.2 0.00 0.00 0.84 88 1017.4
20260508121436 12 190 0.0 3.2 0.00 0.00 0.84 88 1017.5
20260508121336 12 189 0.0 3.2 0.00 0.00 0.84 89 1017.7